GFSNIL_prec_pwat_000.txt.gz
Precipitable_Water
1.25 1.20 1.17 1.09 0.98 1.04 1.02 1.00 0.98 1.00 1.02 0.90 0.84 0.85 0.90 0.91 0.93 0.97 0.99 1.00 0.99 0.95
1.24 1.24 1.21 1.10 1.07 1.10 1.04 0.99 1.00 1.02 0.99 0.96 0.88 0.88 0.88 0.84 0.79 0.89 0.95 0.96 0.98 0.97
1.20 1.23 1.19 1.01 1.04 1.09 1.07 1.01 1.02 1.02 1.04 1.01 0.90 0.87 0.85 0.81 0.74 0.78 0.85 0.92 0.95 0.99
1.35 1.27 1.13 1.01 1.01 1.10 1.16 1.15 1.07 1.02 1.01 1.02 0.93 0.91 0.82 0.78 0.83 0.85 0.89 0.98 0.99 0.98
1.17 1.38 1.13 1.04 1.10 1.18 1.17 1.15 1.10 1.05 1.03 1.01 1.01 0.97 0.86 0.81 0.84 0.87 0.91 0.99 1.03 0.97
1.35 1.34 1.27 1.17 1.17 1.18 1.21 1.04 1.10 1.09 1.03 1.02 0.98 0.91 0.85 0.89 0.94 0.97 0.99 0.97 0.96 0.93
1.49 1.47 1.62 1.34 1.32 1.19 1.23 1.07 1.11 1.12 1.07 1.07 1.01 0.95 0.94 0.99 1.03 1.03 1.06 1.07 1.02 0.98
1.46 1.66 1.77 1.60 1.55 1.44 1.24 1.21 1.16 1.14 1.11 1.12 1.12 1.08 1.01 1.06 1.12 1.10 1.12 1.09 1.03 0.99
1.56 1.65 1.91 1.85 1.62 1.59 1.33 1.28 1.17 1.18 1.15 1.15 1.21 1.16 1.12 1.16 1.22 1.20 1.18 1.07 1.05 1.00
1.59 1.63 1.75 1.85 1.53 1.71 1.41 1.29 1.11 1.17 1.19 1.18 1.24 1.19 1.22 1.27 1.30 1.28 1.22 1.09 1.00 0.95
1.67 1.62 1.86 1.60 1.48 1.68 1.39 1.19 1.10 1.17 1.21 1.17 1.28 1.25 1.35 1.42 1.40 1.35 1.21 1.07 1.01 0.95
1.58 1.58 1.68 1.63 1.41 1.59 1.45 1.20 1.19 1.25 1.27 1.30 1.29 1.37 1.41 1.41 1.38 1.19 1.09 1.03 1.01 0.96
1.53 1.53 1.53 1.51 1.55 1.51 1.47 1.35 1.40 1.37 1.42 1.46 1.53 1.54 1.48 1.47 1.31 1.06 0.94 0.96 0.96 0.97
1.50 1.51 1.58 1.59 1.63 1.52 1.40 1.38 1.34 1.32 1.27 1.30 1.39 1.45 1.49 1.39 1.17 0.95 0.91 0.89 0.88 0.91

GFSNIL_prec_pwat_003.txt.gz
Precipitable_Water
1.33 1.32 1.27 1.22 1.18 1.13 1.09 1.10 1.16 1.07 1.03 1.11 1.06 0.90 0.90 0.87 0.88 0.92 0.91 0.95 1.03 1.04
1.35 1.34 1.27 1.28 1.31 1.28 1.22 1.28 1.24 1.07 1.06 1.10 1.04 0.97 0.94 0.87 0.81 0.83 0.90 0.95 0.98 0.94
1.27 1.27 1.30 1.37 1.31 1.28 1.17 1.27 1.26 1.19 1.18 1.08 1.05 1.00 0.95 0.89 0.85 0.80 0.81 0.89 0.93 0.95
1.27 1.29 1.30 1.35 1.34 1.22 1.14 1.26 1.20 1.24 1.21 1.16 1.10 1.06 0.95 0.88 0.83 0.80 0.89 0.98 0.98 0.99
1.36 1.27 1.26 1.36 1.58 1.17 1.05 1.20 1.16 1.26 1.24 1.18 1.18 1.15 1.05 0.94 0.90 0.92 0.94 0.98 1.00 1.00
1.42 1.41 1.31 1.39 1.39 1.20 1.15 1.12 1.21 1.28 1.21 1.16 1.18 1.18 1.15 1.03 0.97 0.97 1.04 1.05 1.05 1.07
1.53 1.51 1.48 1.45 1.59 1.26 1.42 1.34 1.27 1.22 1.18 1.19 1.23 1.19 1.13 1.07 1.08 1.05 1.07 1.13 1.16 1.17
1.69 1.68 1.66 1.65 1.65 1.59 1.47 1.58 1.53 1.30 1.22 1.21 1.23 1.20 1.18 1.19 1.22 1.17 1.15 1.19 1.22 1.28
1.56 1.57 1.62 1.67 1.65 1.67 1.67 1.63 1.57 1.43 1.30 1.23 1.24 1.20 1.25 1.28 1.29 1.25 1.28 1.25 1.25 1.34
1.48 1.53 1.63 1.66 1.69 1.65 1.61 1.49 1.47 1.39 1.38 1.35 1.28 1.26 1.27 1.30 1.33 1.31 1.31 1.31 1.39 1.34
1.39 1.48 1.58 1.67 1.64 1.60 1.54 1.46 1.46 1.42 1.44 1.37 1.37 1.34 1.34 1.43 1.44 1.42 1.45 1.45 1.42 1.33
1.36 1.39 1.46 1.52 1.48 1.48 1.49 1.40 1.51 1.51 1.38 1.34 1.36 1.38 1.36 1.35 1.35 1.44 1.46 1.51 1.41 1.31
1.50 1.55 1.56 1.57 1.52 1.56 1.53 1.50 1.63 1.50 1.43 1.40 1.35 1.37 1.33 1.30 1.35 1.39 1.43 1.48 1.27 1.10
1.54 1.50 1.49 1.51 1.53 1.52 1.48 1.51 1.52 1.40 1.42 1.36 1.33 1.31 1.33 1.33 1.34 1.28 1.37 1.23 1.07 1.00

GFSNIL_prec_pwat_006.txt.gz
Precipitable_Water
1.42 1.42 1.41 1.45 1.38 1.28 1.28 1.28 1.36 1.39 1.34 1.24 1.25 1.18 1.05 0.96 1.00 1.05 0.98 0.93 1.02 1.03
1.44 1.43 1.45 1.50 1.52 1.40 1.37 1.31 1.43 1.40 1.35 1.32 1.39 1.23 1.10 1.01 1.03 0.99 0.97 0.94 0.97 1.04
1.35 1.42 1.46 1.48 1.47 1.35 1.45 1.44 1.44 1.37 1.30 1.29 1.38 1.32 1.23 1.13 1.08 0.96 0.87 0.90 0.96 1.02
1.33 1.43 1.45 1.45 1.45 1.49 1.55 1.41 1.36 1.36 1.31 1.40 1.25 1.34 1.30 1.19 1.10 1.03 0.94 0.92 1.03 1.09
1.39 1.43 1.42 1.44 1.45 1.46 1.44 1.34 1.30 1.35 1.33 1.25 1.31 1.33 1.37 1.27 1.15 1.07 1.02 1.03 1.03 1.13
1.40 1.43 1.50 1.48 1.39 1.53 1.46 1.23 1.28 1.40 1.42 1.39 1.38 1.34 1.36 1.36 1.26 1.14 1.12 1.15 1.16 1.14
1.65 1.62 1.63 1.62 1.54 1.40 1.36 1.15 1.29 1.28 1.38 1.48 1.38 1.31 1.34 1.39 1.31 1.16 1.18 1.25 1.28 1.27
1.75 1.84 1.86 1.79 1.58 1.53 1.36 1.29 1.15 1.25 1.35 1.44 1.43 1.24 1.35 1.33 1.28 1.22 1.23 1.28 1.37 1.41
1.69 1.71 1.69 1.68 1.67 1.58 1.47 1.44 1.42 1.33 1.36 1.41 1.36 1.26 1.29 1.28 1.29 1.33 1.34 1.34 1.45 1.47
1.54 1.51 1.53 1.59 1.63 1.62 1.62 1.59 1.48 1.45 1.43 1.41 1.40 1.35 1.25 1.24 1.30 1.37 1.39 1.42 1.38 1.41
1.39 1.40 1.40 1.42 1.41 1.43 1.48 1.47 1.48 1.47 1.48 1.48 1.46 1.38 1.39 1.40 1.35 1.38 1.40 1.39 1.38 1.38
1.29 1.32 1.37 1.36 1.42 1.51 1.54 1.53 1.50 1.53 1.52 1.50 1.52 1.44 1.47 1.46 1.43 1.34 1.34 1.36 1.38 1.36
1.33 1.36 1.38 1.45 1.50 1.59 1.61 1.49 1.48 1.54 1.56 1.55 1.47 1.47 1.42 1.40 1.38 1.31 1.29 1.30 1.40 1.42
1.35 1.41 1.49 1.50 1.50 1.56 1.55 1.50 1.54 1.54 1.57 1.59 1.50 1.43 1.47 1.36 1.29 1.24 1.27 1.28 1.34 1.43

GFSNIL_prec_pwat_009.txt.gz
Precipitable_Water
1.46 1.39 1.38 1.43 1.48 1.37 1.40 1.42 1.61 1.58 1.51 1.43 1.41 1.43 1.38 1.20 1.10 1.14 1.08 0.98 0.98 1.04
1.52 1.44 1.41 1.46 1.49 1.55 1.48 1.47 1.47 1.57 1.44 1.44 1.40 1.45 1.39 1.26 1.29 1.18 1.13 1.06 1.08 1.06
1.48 1.54 1.49 1.56 1.50 1.53 1.51 1.43 1.47 1.50 1.45 1.41 1.38 1.47 1.35 1.33 1.34 1.29 1.20 1.12 1.07 1.06
1.37 1.46 1.47 1.43 1.46 1.51 1.48 1.52 1.44 1.44 1.40 1.35 1.46 1.51 1.48 1.35 1.31 1.40 1.30 1.22 1.06 1.11
1.32 1.39 1.39 1.46 1.51 1.51 1.44 1.48 1.39 1.33 1.30 1.37 1.45 1.52 1.44 1.29 1.35 1.31 1.23 1.20 1.13 1.19
1.32 1.35 1.39 1.51 1.52 1.55 1.55 1.51 1.39 1.30 1.25 1.28 1.31 1.41 1.35 1.39 1.33 1.33 1.31 1.30 1.25 1.28
1.44 1.41 1.45 1.52 1.58 1.59 1.64 1.56 1.31 1.25 1.22 1.25 1.31 1.29 1.32 1.35 1.34 1.26 1.42 1.41 1.31 1.35
1.57 1.61 1.61 1.59 1.65 1.75 1.73 1.64 1.47 1.30 1.27 1.34 1.31 1.36 1.33 1.34 1.36 1.19 1.40 1.36 1.33 1.39
1.60 1.65 1.67 1.71 1.80 1.84 1.81 1.78 1.68 1.49 1.38 1.33 1.34 1.36 1.42 1.46 1.32 1.25 1.34 1.35 1.38 1.41
1.62 1.59 1.69 1.77 1.77 1.74 1.72 1.77 1.62 1.45 1.35 1.39 1.46 1.48 1.41 1.42 1.30 1.33 1.40 1.43 1.42 1.41
1.59 1.67 1.71 1.68 1.61 1.58 1.57 1.55 1.56 1.52 1.43 1.48 1.53 1.49 1.44 1.44 1.37 1.34 1.33 1.40 1.45 1.45
1.56 1.55 1.49 1.40 1.44 1.48 1.51 1.53 1.45 1.56 1.50 1.52 1.57 1.57 1.54 1.55 1.42 1.43 1.43 1.43 1.48 1.48
1.38 1.37 1.39 1.43 1.47 1.54 1.58 1.57 1.58 1.53 1.57 1.63 1.61 1.65 1.61 1.58 1.45 1.41 1.42 1.53 1.53 1.45
1.38 1.38 1.41 1.42 1.51 1.55 1.56 1.59 1.55 1.50 1.54 1.60 1.63 1.62 1.60 1.51 1.46 1.44 1.47 1.37 1.37 1.43

GFSNIL_prec_pwat_012.txt.gz
Precipitable_Water
1.39 1.43 1.33 1.37 1.32 1.36 1.33 1.39 1.59 1.55 1.55 1.45 1.40 1.34 1.42 1.43 1.34 1.33 1.29 1.06 0.99 1.10
1.38 1.38 1.40 1.32 1.40 1.51 1.48 1.55 1.56 1.57 1.59 1.51 1.42 1.43 1.50 1.42 1.48 1.50 1.42 1.33 1.12 0.99
1.45 1.36 1.33 1.29 1.38 1.49 1.60 1.49 1.57 1.56 1.56 1.46 1.37 1.38 1.45 1.41 1.51 1.32 1.28 1.29 1.32 1.24
1.35 1.33 1.30 1.36 1.43 1.51 1.50 1.55 1.55 1.52 1.48 1.45 1.32 1.33 1.39 1.35 1.32 1.27 1.29 1.27 1.23 1.24
1.28 1.30 1.31 1.30 1.43 1.50 1.55 1.56 1.48 1.52 1.45 1.41 1.32 1.28 1.31 1.27 1.27 1.30 1.25 1.28 1.23 1.14
1.21 1.28 1.27 1.33 1.33 1.52 1.49 1.49 1.49 1.46 1.43 1.38 1.31 1.29 1.29 1.33 1.28 1.29 1.23 1.22 1.22 1.09
1.24 1.28 1.28 1.35 1.43 1.40 1.49 1.50 1.50 1.53 1.50 1.42 1.35 1.32 1.27 1.34 1.36 1.32 1.31 1.33 1.32 1.19
1.33 1.41 1.43 1.40 1.46 1.53 1.56 1.64 1.66 1.67 1.64 1.62 1.51 1.36 1.33 1.35 1.34 1.39 1.38 1.44 1.37 1.26
1.39 1.48 1.49 1.52 1.53 1.65 1.69 1.79 1.86 1.82 1.79 1.73 1.61 1.41 1.33 1.34 1.42 1.47 1.45 1.39 1.41 1.29
1.37 1.44 1.53 1.63 1.70 1.73 1.81 1.91 1.90 1.92 1.88 1.78 1.74 1.49 1.38 1.48 1.53 1.48 1.46 1.51 1.44 1.30
1.42 1.47 1.57 1.65 1.70 1.80 1.87 1.86 1.88 1.85 1.80 1.70 1.68 1.62 1.49 1.46 1.41 1.41 1.50 1.54 1.52 1.37
1.59 1.62 1.65 1.65 1.75 1.84 1.81 1.72 1.70 1.71 1.62 1.55 1.58 1.63 1.54 1.44 1.50 1.46 1.46 1.56 1.47 1.42
1.73 1.71 1.69 1.79 1.78 1.69 1.65 1.60 1.61 1.55 1.58 1.57 1.57 1.62 1.60 1.64 1.58 1.47 1.49 1.50 1.48 1.45
1.72 1.78 1.83 1.73 1.61 1.52 1.51 1.54 1.52 1.50 1.53 1.57 1.52 1.59 1.67 1.63 1.52 1.48 1.46 1.40 1.43 1.65

GFSNIL_prec_pwat_015.txt.gz
Precipitable_Water
1.30 1.30 1.32 1.21 1.41 1.38 1.35 1.46 1.57 1.50 1.48 1.37 1.29 1.26 1.36 1.35 1.33 1.30 1.15 1.17 1.20 1.24
1.33 1.32 1.35 1.26 1.35 1.45 1.46 1.53 1.53 1.47 1.49 1.50 1.41 1.17 1.29 1.29 1.29 1.30 1.25 1.13 1.10 1.18
1.22 1.37 1.36 1.36 1.30 1.42 1.51 1.49 1.47 1.48 1.50 1.50 1.49 1.37 1.24 1.26 1.31 1.27 1.31 1.27 1.14 1.11
1.24 1.34 1.36 1.29 1.35 1.37 1.54 1.51 1.48 1.49 1.50 1.48 1.48 1.43 1.21 1.21 1.29 1.27 1.25 1.31 1.23 1.22
1.30 1.29 1.30 1.25 1.32 1.36 1.37 1.53 1.53 1.50 1.50 1.49 1.45 1.43 1.27 1.15 1.24 1.22 1.25 1.25 1.27 1.24
1.27 1.26 1.20 1.25 1.30 1.33 1.30 1.38 1.48 1.49 1.47 1.47 1.46 1.43 1.44 1.28 1.18 1.23 1.27 1.29 1.26 1.25
1.22 1.17 1.19 1.26 1.24 1.31 1.39 1.41 1.43 1.47 1.49 1.49 1.48 1.49 1.51 1.46 1.25 1.23 1.25 1.34 1.32 1.36
1.23 1.25 1.28 1.31 1.33 1.30 1.35 1.46 1.52 1.51 1.55 1.58 1.58 1.59 1.60 1.58 1.42 1.29 1.23 1.35 1.35 1.40
1.22 1.29 1.31 1.36 1.36 1.41 1.42 1.45 1.53 1.58 1.61 1.65 1.71 1.75 1.81 1.76 1.59 1.43 1.28 1.26 1.36 1.47
1.19 1.24 1.32 1.41 1.46 1.49 1.52 1.62 1.65 1.73 1.80 1.83 1.89 1.94 1.84 1.75 1.65 1.50 1.33 1.34 1.43 1.50
1.23 1.20 1.38 1.47 1.49 1.59 1.69 1.74 1.83 1.91 2.02 1.93 1.90 1.81 1.74 1.70 1.60 1.46 1.46 1.51 1.50 1.50
1.26 1.22 1.36 1.46 1.61 1.71 1.75 1.84 1.92 2.00 1.90 1.78 1.77 1.74 1.66 1.57 1.48 1.44 1.44 1.47 1.49 1.56
1.36 1.30 1.36 1.56 1.70 1.78 1.86 1.99 2.04 1.84 1.81 1.79 1.67 1.65 1.61 1.51 1.41 1.34 1.39 1.48 1.45 1.53
1.51 1.46 1.57 1.71 1.80 1.89 2.04 1.96 1.78 1.68 1.62 1.59 1.60 1.57 1.49 1.44 1.46 1.43 1.39 1.39 1.42 1.48

GFSNIL_prec_pwat_018.txt.gz
Precipitable_Water
1.27 1.15 1.12 1.22 1.32 1.28 1.21 1.30 1.51 1.54 1.54 1.46 1.36 1.30 1.16 1.21 1.26 1.23 1.14 1.18 1.23 1.20
1.27 1.20 1.12 1.34 1.35 1.27 1.33 1.45 1.55 1.55 1.55 1.47 1.35 1.29 1.14 1.13 1.21 1.25 1.17 1.06 1.15 1.15
1.23 1.26 1.24 1.35 1.26 1.24 1.42 1.53 1.53 1.54 1.52 1.44 1.48 1.43 1.34 1.14 1.18 1.23 1.20 1.18 1.11 1.10
1.21 1.22 1.29 1.28 1.28 1.27 1.44 1.52 1.49 1.51 1.47 1.42 1.43 1.45 1.41 1.36 1.16 1.13 1.16 1.21 1.21 1.14
1.27 1.23 1.24 1.24 1.22 1.33 1.40 1.46 1.49 1.50 1.48 1.48 1.46 1.46 1.42 1.38 1.30 1.12 1.10 1.16 1.22 1.21
1.30 1.20 1.21 1.18 1.24 1.29 1.35 1.42 1.48 1.50 1.49 1.49 1.49 1.47 1.48 1.45 1.42 1.30 1.17 1.18 1.20 1.21
1.30 1.16 1.16 1.22 1.20 1.24 1.28 1.31 1.40 1.47 1.51 1.52 1.52 1.53 1.54 1.55 1.52 1.51 1.43 1.27 1.23 1.26
1.29 1.24 1.19 1.21 1.23 1.23 1.27 1.30 1.36 1.38 1.41 1.49 1.52 1.53 1.53 1.57 1.58 1.62 1.59 1.50 1.31 1.28
1.28 1.26 1.16 1.21 1.25 1.23 1.24 1.33 1.34 1.34 1.37 1.41 1.48 1.57 1.64 1.68 1.72 1.73 1.63 1.53 1.39 1.25
1.31 1.19 1.15 1.20 1.27 1.26 1.24 1.32 1.36 1.41 1.50 1.53 1.63 1.76 1.80 1.85 1.79 1.72 1.66 1.57 1.45 1.28
1.40 1.24 1.20 1.20 1.24 1.32 1.39 1.38 1.42 1.49 1.57 1.69 1.91 2.04 1.96 1.85 1.76 1.73 1.69 1.67 1.50 1.33
1.49 1.38 1.28 1.15 1.21 1.34 1.43 1.47 1.54 1.69 1.83 1.89 1.49 1.96 1.87 1.87 1.82 1.69 1.66 1.56 1.48 1.46
1.46 1.51 1.40 1.26 1.24 1.40 1.58 1.64 1.73 1.75 1.88 1.90 1.85 1.78 1.90 1.88 1.78 1.55 1.45 1.41 1.44 1.48
1.40 1.52 1.56 1.52 1.46 1.48 1.62 1.75 1.79 1.82 2.00 2.03 1.88 1.79 1.78 1.65 1.53 1.42 1.31 1.25 1.30 1.40

GFSNIL_prec_pwat_021.txt.gz
Precipitable_Water
1.24 1.23 1.22 1.20 1.21 1.19 1.24 1.26 1.44 1.49 1.57 1.57 1.52 1.43 1.36 1.20 1.18 1.22 1.20 1.17 1.16 1.18
1.27 1.26 1.24 1.21 1.21 1.25 1.24 1.35 1.40 1.50 1.53 1.57 1.52 1.41 1.36 1.19 1.11 1.21 1.17 1.12 1.16 1.17
1.32 1.30 1.29 1.32 1.17 1.24 1.21 1.35 1.37 1.46 1.52 1.57 1.55 1.46 1.34 1.26 1.12 1.14 1.20 1.14 1.10 1.09
1.36 1.31 1.30 1.29 1.20 1.19 1.24 1.35 1.39 1.45 1.50 1.50 1.53 1.47 1.44 1.40 1.33 1.14 1.10 1.17 1.13 1.11
1.43 1.31 1.26 1.24 1.26 1.15 1.19 1.35 1.38 1.48 1.48 1.49 1.52 1.50 1.45 1.40 1.42 1.37 1.27 1.11 1.16 1.14
1.42 1.30 1.19 1.21 1.29 1.19 1.18 1.32 1.36 1.42 1.44 1.44 1.48 1.48 1.46 1.46 1.46 1.48 1.50 1.38 1.26 1.25
1.37 1.37 1.18 1.15 1.27 1.23 1.20 1.25 1.32 1.39 1.42 1.48 1.53 1.52 1.51 1.51 1.50 1.55 1.59 1.63 1.57 1.38
1.40 1.43 1.32 1.18 1.21 1.24 1.23 1.26 1.30 1.34 1.41 1.46 1.48 1.50 1.50 1.50 1.50 1.56 1.61 1.71 1.69 1.59
1.42 1.42 1.35 1.24 1.18 1.24 1.24 1.24 1.26 1.25 1.28 1.31 1.37 1.40 1.42 1.48 1.55 1.61 1.66 1.67 1.72 1.68
1.41 1.39 1.34 1.36 1.22 1.16 1.20 1.27 1.22 1.23 1.27 1.24 1.29 1.34 1.37 1.53 1.69 1.72 1.74 1.79 1.69 1.65
1.43 1.37 1.38 1.36 1.28 1.21 1.22 1.21 1.22 1.21 1.25 1.27 1.28 1.35 1.51 1.73 1.84 1.89 1.80 1.79 1.77 1.64
1.42 1.43 1.42 1.33 1.29 1.29 1.29 1.25 1.22 1.29 1.29 1.28 1.39 1.61 1.78 1.83 1.93 1.84 1.75 1.85 1.78 1.64
1.40 1.47 1.48 1.44 1.36 1.39 1.35 1.32 1.36 1.37 1.42 1.49 1.68 1.87 1.90 1.90 1.93 1.74 1.75 1.74 1.67 1.58
1.46 1.44 1.51 1.61 1.61 1.45 1.40 1.40 1.42 1.48 1.55 1.75 1.88 1.74 1.53 1.60 1.79 1.76 1.72 1.53 1.44 1.41

GFSNIL_prec_pwat_024.txt.gz
Precipitable_Water
1.26 1.25 1.25 1.31 1.31 1.24 1.15 1.24 1.35 1.45 1.54 1.56 1.61 1.56 1.41 1.29 1.26 1.19 1.18 1.13 1.17 1.20
1.29 1.27 1.25 1.28 1.33 1.28 1.25 1.21 1.32 1.46 1.51 1.53 1.58 1.58 1.49 1.34 1.28 1.18 1.18 1.17 1.14 1.16
1.38 1.39 1.33 1.34 1.29 1.26 1.21 1.24 1.25 1.39 1.48 1.50 1.56 1.59 1.52 1.39 1.33 1.22 1.16 1.19 1.13 1.12
1.43 1.46 1.45 1.35 1.34 1.27 1.26 1.22 1.27 1.33 1.42 1.43 1.51 1.56 1.51 1.39 1.34 1.27 1.12 1.15 1.16 1.15
1.44 1.48 1.44 1.36 1.30 1.30 1.27 1.25 1.29 1.30 1.38 1.41 1.44 1.52 1.49 1.41 1.44 1.41 1.36 1.33 1.28 1.22
1.39 1.40 1.42 1.38 1.30 1.26 1.30 1.27 1.25 1.28 1.31 1.35 1.42 1.47 1.47 1.46 1.44 1.47 1.45 1.47 1.50 1.47
1.35 1.31 1.37 1.39 1.29 1.21 1.29 1.25 1.25 1.28 1.33 1.36 1.45 1.48 1.44 1.43 1.46 1.52 1.57 1.60 1.63 1.64
1.35 1.40 1.40 1.41 1.36 1.18 1.23 1.23 1.24 1.26 1.33 1.38 1.38 1.42 1.42 1.43 1.45 1.49 1.51 1.60 1.67 1.74
1.39 1.41 1.40 1.37 1.38 1.26 1.16 1.27 1.26 1.28 1.26 1.31 1.35 1.39 1.44 1.46 1.42 1.46 1.50 1.55 1.70 1.77
1.39 1.39 1.39 1.42 1.39 1.28 1.10 1.18 1.18 1.24 1.28 1.26 1.35 1.42 1.43 1.43 1.40 1.43 1.50 1.61 1.72 1.79
1.44 1.42 1.47 1.49 1.40 1.34 1.29 1.09 1.12 1.18 1.26 1.28 1.30 1.37 1.37 1.35 1.38 1.43 1.57 1.67 1.80 1.80
1.41 1.44 1.46 1.47 1.41 1.40 1.37 1.27 1.12 1.20 1.25 1.26 1.27 1.29 1.29 1.35 1.39 1.45 1.54 1.78 1.85 1.80
1.43 1.49 1.46 1.46 1.49 1.52 1.53 1.44 1.39 1.23 1.25 1.29 1.26 1.29 1.26 1.37 1.43 1.46 1.52 1.69 1.82 1.73
1.50 1.50 1.52 1.60 1.67 1.71 1.69 1.61 1.50 1.37 1.32 1.37 1.39 1.33 1.28 1.40 1.57 1.56 1.50 1.62 1.63 1.65

GFSNIL_prec_pwat_027.txt.gz
Precipitable_Water
1.24 1.26 1.27 1.31 1.34 1.33 1.29 1.23 1.28 1.32 1.46 1.53 1.62 1.65 1.59 1.45 1.35 1.29 1.21 1.16 1.11 1.16
1.21 1.23 1.22 1.26 1.30 1.33 1.38 1.33 1.26 1.36 1.41 1.47 1.58 1.62 1.59 1.46 1.32 1.31 1.22 1.17 1.18 1.15
1.19 1.23 1.27 1.31 1.26 1.27 1.32 1.37 1.30 1.31 1.43 1.45 1.53 1.60 1.59 1.53 1.46 1.31 1.28 1.19 1.20 1.20
1.28 1.36 1.44 1.42 1.38 1.33 1.34 1.39 1.35 1.32 1.37 1.42 1.46 1.54 1.56 1.55 1.46 1.33 1.24 1.20 1.15 1.21
1.39 1.42 1.41 1.41 1.44 1.46 1.31 1.37 1.38 1.31 1.33 1.38 1.40 1.46 1.48 1.48 1.46 1.34 1.24 1.27 1.22 1.22
1.46 1.42 1.39 1.43 1.46 1.48 1.36 1.28 1.34 1.35 1.27 1.33 1.34 1.38 1.42 1.49 1.48 1.41 1.40 1.42 1.42 1.41
1.40 1.38 1.41 1.44 1.47 1.46 1.42 1.27 1.27 1.31 1.27 1.30 1.33 1.36 1.37 1.42 1.47 1.45 1.42 1.46 1.50 1.52
1.39 1.45 1.47 1.44 1.44 1.48 1.47 1.30 1.21 1.26 1.28 1.28 1.30 1.31 1.34 1.38 1.45 1.44 1.42 1.46 1.52 1.57
1.41 1.42 1.40 1.44 1.44 1.45 1.47 1.41 1.24 1.23 1.22 1.21 1.21 1.25 1.32 1.35 1.38 1.42 1.40 1.40 1.48 1.57
1.44 1.42 1.40 1.44 1.49 1.46 1.42 1.46 1.25 1.17 1.20 1.17 1.25 1.22 1.26 1.31 1.34 1.37 1.38 1.40 1.43 1.49
1.45 1.46 1.49 1.51 1.47 1.49 1.51 1.41 1.34 1.20 1.19 1.15 1.19 1.24 1.24 1.28 1.35 1.34 1.37 1.42 1.44 1.49
1.39 1.39 1.45 1.48 1.51 1.57 1.57 1.55 1.41 1.34 1.25 1.17 1.14 1.22 1.28 1.30 1.31 1.33 1.33 1.41 1.45 1.55
1.36 1.40 1.41 1.45 1.53 1.65 1.62 1.56 1.58 1.43 1.33 1.26 1.21 1.26 1.27 1.33 1.31 1.29 1.34 1.43 1.45 1.60
1.44 1.44 1.51 1.60 1.72 1.77 1.78 1.80 1.63 1.60 1.46 1.35 1.32 1.34 1.31 1.37 1.41 1.31 1.29 1.33 1.40 1.66

GFSNIL_prec_pwat_030.txt.gz
Precipitable_Water
1.29 1.31 1.34 1.36 1.38 1.37 1.39 1.40 1.43 1.42 1.35 1.46 1.53 1.60 1.63 1.62 1.51 1.40 1.29 1.19 1.12 1.19
1.26 1.27 1.23 1.29 1.38 1.37 1.45 1.46 1.44 1.37 1.34 1.42 1.49 1.55 1.59 1.54 1.48 1.37 1.28 1.21 1.21 1.16
1.18 1.21 1.23 1.29 1.29 1.32 1.35 1.43 1.44 1.36 1.35 1.41 1.49 1.52 1.56 1.52 1.50 1.42 1.33 1.27 1.21 1.21
1.18 1.21 1.25 1.27 1.29 1.34 1.37 1.40 1.44 1.38 1.31 1.35 1.45 1.49 1.51 1.51 1.49 1.44 1.37 1.31 1.25 1.22
1.23 1.19 1.19 1.24 1.30 1.39 1.35 1.37 1.38 1.42 1.35 1.30 1.40 1.48 1.45 1.46 1.47 1.44 1.37 1.35 1.30 1.21
1.39 1.36 1.31 1.33 1.43 1.50 1.47 1.39 1.36 1.37 1.33 1.26 1.31 1.41 1.43 1.45 1.46 1.44 1.42 1.41 1.35 1.31
1.41 1.40 1.41 1.45 1.45 1.49 1.53 1.52 1.42 1.34 1.31 1.29 1.27 1.36 1.37 1.36 1.39 1.43 1.44 1.47 1.46 1.43
1.42 1.49 1.52 1.52 1.51 1.53 1.55 1.57 1.58 1.45 1.32 1.29 1.30 1.25 1.29 1.28 1.30 1.37 1.39 1.46 1.49 1.50
1.45 1.51 1.49 1.52 1.51 1.55 1.55 1.56 1.58 1.53 1.42 1.24 1.22 1.21 1.21 1.25 1.23 1.32 1.33 1.34 1.45 1.53
1.47 1.45 1.49 1.58 1.60 1.55 1.52 1.59 1.53 1.53 1.49 1.34 1.21 1.17 1.13 1.18 1.22 1.25 1.30 1.35 1.45 1.47
1.44 1.50 1.60 1.62 1.58 1.59 1.59 1.57 1.60 1.61 1.59 1.47 1.35 1.24 1.16 1.19 1.27 1.30 1.33 1.39 1.46 1.47
1.45 1.50 1.59 1.57 1.56 1.65 1.71 1.72 1.74 1.78 1.80 1.68 1.48 1.38 1.24 1.21 1.27 1.24 1.32 1.38 1.45 1.50
1.47 1.52 1.48 1.53 1.62 1.68 1.71 1.72 1.76 1.76 1.82 1.82 1.70 1.61 1.50 1.34 1.28 1.28 1.29 1.41 1.49 1.48
1.41 1.41 1.47 1.53 1.59 1.61 1.63 1.66 1.65 1.69 1.78 1.81 1.85 1.72 1.55 1.46 1.35 1.20 1.27 1.30 1.43 1.52

GFSNIL_prec_pwat_033.txt.gz
Precipitable_Water
1.24 1.24 1.24 1.26 1.30 1.30 1.33 1.33 1.46 1.53 1.52 1.44 1.53 1.58 1.62 1.65 1.56 1.46 1.35 1.25 1.14 1.29
1.22 1.19 1.22 1.28 1.33 1.41 1.36 1.37 1.46 1.54 1.46 1.44 1.43 1.56 1.58 1.53 1.58 1.49 1.41 1.32 1.24 1.18
1.19 1.21 1.23 1.32 1.32 1.32 1.38 1.36 1.50 1.40 1.42 1.37 1.36 1.47 1.54 1.51 1.58 1.49 1.40 1.31 1.29 1.24
1.17 1.21 1.29 1.27 1.32 1.34 1.36 1.39 1.32 1.41 1.37 1.30 1.28 1.37 1.50 1.46 1.53 1.49 1.44 1.35 1.30 1.25
1.23 1.22 1.21 1.26 1.32 1.39 1.38 1.41 1.39 1.41 1.41 1.40 1.31 1.33 1.44 1.42 1.39 1.48 1.46 1.42 1.33 1.25
1.36 1.25 1.17 1.21 1.25 1.28 1.34 1.39 1.40 1.41 1.42 1.37 1.34 1.27 1.34 1.43 1.36 1.42 1.47 1.44 1.40 1.34
1.49 1.37 1.33 1.34 1.34 1.32 1.36 1.36 1.39 1.43 1.42 1.38 1.31 1.31 1.25 1.29 1.35 1.35 1.42 1.46 1.45 1.44
1.55 1.57 1.55 1.51 1.48 1.45 1.43 1.44 1.53 1.56 1.55 1.52 1.41 1.28 1.25 1.20 1.27 1.28 1.31 1.41 1.45 1.49
1.63 1.64 1.59 1.61 1.58 1.57 1.48 1.50 1.54 1.54 1.57 1.58 1.54 1.43 1.28 1.28 1.23 1.29 1.33 1.33 1.42 1.45
1.61 1.62 1.64 1.65 1.65 1.60 1.57 1.58 1.52 1.55 1.61 1.61 1.65 1.55 1.41 1.28 1.33 1.26 1.26 1.33 1.36 1.40
1.47 1.56 1.66 1.64 1.63 1.65 1.72 1.68 1.65 1.65 1.68 1.67 1.66 1.66 1.52 1.41 1.35 1.35 1.33 1.33 1.36 1.38
1.43 1.53 1.60 1.51 1.56 1.64 1.68 1.70 1.67 1.73 1.74 1.71 1.68 1.75 1.70 1.55 1.44 1.37 1.32 1.36 1.48 1.50
1.43 1.47 1.51 1.55 1.56 1.66 1.70 1.65 1.73 1.72 1.74 1.74 1.70 1.75 1.73 1.71 1.56 1.40 1.39 1.37 1.44 1.49
1.40 1.42 1.53 1.56 1.58 1.66 1.68 1.70 1.68 1.67 1.71 1.72 1.72 1.70 1.71 1.72 1.70 1.48 1.32 1.32 1.39 1.40

GFSNIL_prec_pwat_036.txt.gz
Precipitable_Water
1.26 1.24 1.10 1.22 1.17 1.17 1.29 1.37 1.43 1.44 1.51 1.45 1.42 1.48 1.66 1.51 1.58 1.49 1.27 1.20 1.22 1.26
1.15 1.19 1.08 1.14 1.20 1.24 1.25 1.38 1.40 1.48 1.52 1.45 1.44 1.41 1.53 1.51 1.50 1.52 1.43 1.24 1.16 1.21
1.07 1.08 1.13 1.13 1.14 1.18 1.29 1.23 1.45 1.44 1.45 1.45 1.40 1.42 1.44 1.50 1.45 1.54 1.50 1.39 1.25 1.11
1.08 1.10 1.12 1.16 1.19 1.26 1.29 1.40 1.27 1.57 1.42 1.39 1.41 1.36 1.35 1.41 1.45 1.42 1.46 1.41 1.29 1.24
1.14 1.18 1.17 1.12 1.16 1.28 1.34 1.35 1.41 1.40 1.45 1.40 1.36 1.34 1.29 1.23 1.30 1.42 1.40 1.37 1.30 1.28
1.18 1.19 1.20 1.19 1.15 1.21 1.27 1.34 1.37 1.44 1.43 1.35 1.33 1.33 1.33 1.25 1.24 1.25 1.45 1.47 1.41 1.32
1.48 1.40 1.29 1.30 1.31 1.25 1.27 1.27 1.32 1.36 1.41 1.50 1.42 1.36 1.35 1.38 1.32 1.30 1.33 1.51 1.50 1.44
1.62 1.62 1.56 1.47 1.41 1.40 1.34 1.30 1.32 1.35 1.43 1.50 1.53 1.45 1.33 1.30 1.31 1.26 1.20 1.29 1.49 1.51
1.65 1.69 1.63 1.61 1.56 1.54 1.49 1.43 1.43 1.42 1.40 1.43 1.53 1.56 1.47 1.38 1.28 1.32 1.29 1.21 1.29 1.45
1.61 1.62 1.66 1.69 1.66 1.61 1.57 1.60 1.51 1.50 1.48 1.42 1.50 1.60 1.59 1.56 1.48 1.34 1.31 1.28 1.27 1.30
1.58 1.60 1.67 1.67 1.66 1.65 1.63 1.61 1.62 1.66 1.64 1.56 1.50 1.55 1.62 1.65 1.63 1.59 1.49 1.45 1.38 1.34
1.43 1.51 1.55 1.52 1.60 1.71 1.72 1.65 1.66 1.69 1.71 1.65 1.61 1.67 1.64 1.68 1.70 1.64 1.59 1.61 1.60 1.52
1.30 1.31 1.40 1.50 1.59 1.74 1.78 1.72 1.74 1.71 1.73 1.74 1.68 1.76 1.76 1.78 1.78 1.64 1.63 1.74 1.73 1.67
1.23 1.22 1.32 1.52 1.64 1.67 1.72 1.76 1.68 1.67 1.75 1.74 1.73 1.74 1.78 1.77 1.79 1.64 1.61 1.62 1.65 1.76

GFSNIL_prec_pwat_039.txt.gz
Precipitable_Water
1.28 1.22 1.16 1.13 1.10 1.11 1.24 1.30 1.38 1.43 1.51 1.45 1.43 1.38 1.47 1.50 1.44 1.35 1.20 1.26 1.26 1.25
1.15 1.22 1.09 1.06 1.16 1.13 1.17 1.30 1.36 1.44 1.48 1.53 1.47 1.37 1.33 1.47 1.38 1.42 1.32 1.13 1.20 1.20
1.01 1.04 1.15 1.10 1.02 1.15 1.12 1.17 1.36 1.37 1.46 1.50 1.46 1.41 1.32 1.36 1.46 1.38 1.40 1.32 1.21 1.14
1.08 1.04 1.10 1.13 1.06 1.09 1.17 1.18 1.17 1.31 1.39 1.39 1.42 1.44 1.35 1.23 1.36 1.41 1.42 1.45 1.37 1.26
1.16 1.14 1.11 1.15 1.16 1.04 1.09 1.14 1.26 1.26 1.30 1.38 1.38 1.45 1.48 1.28 1.19 1.27 1.33 1.36 1.38 1.32
1.16 1.21 1.14 1.14 1.11 1.14 1.04 1.09 1.18 1.38 1.37 1.36 1.39 1.36 1.36 1.34 1.18 1.09 1.21 1.31 1.34 1.33
1.15 1.18 1.22 1.19 1.12 1.08 1.12 1.07 1.17 1.25 1.39 1.41 1.36 1.37 1.38 1.34 1.30 1.25 1.14 1.23 1.31 1.33
1.43 1.40 1.36 1.29 1.23 1.22 1.17 1.22 1.21 1.22 1.30 1.40 1.47 1.46 1.41 1.36 1.29 1.22 1.22 1.21 1.20 1.28
1.50 1.54 1.54 1.44 1.37 1.30 1.24 1.24 1.27 1.27 1.28 1.31 1.39 1.48 1.49 1.45 1.40 1.33 1.24 1.16 1.18 1.23
1.59 1.56 1.56 1.58 1.55 1.46 1.38 1.38 1.29 1.30 1.33 1.31 1.38 1.48 1.53 1.55 1.54 1.52 1.49 1.38 1.29 1.25
1.50 1.52 1.63 1.65 1.62 1.62 1.57 1.51 1.49 1.50 1.48 1.47 1.48 1.52 1.53 1.60 1.65 1.63 1.64 1.66 1.62 1.53
1.46 1.47 1.53 1.57 1.61 1.69 1.70 1.66 1.60 1.62 1.61 1.56 1.59 1.67 1.65 1.68 1.69 1.68 1.67 1.75 1.79 1.79
1.46 1.44 1.43 1.48 1.53 1.64 1.68 1.66 1.75 1.69 1.69 1.64 1.59 1.72 1.77 1.83 1.80 1.69 1.67 1.78 1.79 1.82
1.37 1.37 1.36 1.41 1.49 1.55 1.60 1.65 1.66 1.67 1.72 1.72 1.71 1.77 1.86 1.91 1.88 1.78 1.76 1.74 1.71 1.80

GFSNIL_prec_pwat_042.txt.gz
Precipitable_Water
1.14 1.11 1.09 1.11 1.10 1.09 1.13 1.22 1.32 1.35 1.43 1.48 1.48 1.41 1.47 1.53 1.51 1.44 1.29 1.32 1.30 1.25
1.17 1.14 1.09 1.08 1.12 1.11 1.19 1.27 1.34 1.36 1.37 1.50 1.45 1.43 1.40 1.43 1.45 1.45 1.30 1.23 1.27 1.25
1.18 1.18 1.14 1.12 1.09 1.08 1.09 1.19 1.26 1.33 1.36 1.49 1.53 1.47 1.42 1.40 1.46 1.47 1.43 1.33 1.17 1.20
1.17 1.15 1.21 1.16 1.08 1.07 1.13 1.13 1.15 1.24 1.30 1.39 1.47 1.54 1.45 1.34 1.37 1.38 1.39 1.41 1.33 1.15
1.20 1.18 1.11 1.11 1.15 1.14 1.09 1.13 1.17 1.17 1.27 1.37 1.43 1.45 1.40 1.32 1.27 1.25 1.31 1.32 1.33 1.30
1.15 1.14 1.11 1.09 1.13 1.18 1.13 1.11 1.18 1.27 1.20 1.21 1.25 1.33 1.37 1.36 1.32 1.24 1.13 1.24 1.28 1.23
1.06 1.13 1.12 1.11 1.09 1.13 1.13 1.09 1.08 1.17 1.22 1.27 1.29 1.31 1.32 1.33 1.28 1.25 1.24 1.16 1.16 1.22
1.07 1.11 1.14 1.13 1.13 1.13 1.14 1.15 1.12 1.08 1.14 1.21 1.31 1.37 1.34 1.32 1.27 1.25 1.24 1.26 1.24 1.22
1.25 1.26 1.24 1.20 1.15 1.17 1.15 1.10 1.13 1.12 1.14 1.17 1.28 1.39 1.42 1.45 1.41 1.38 1.35 1.29 1.29 1.29
1.37 1.37 1.41 1.45 1.43 1.36 1.23 1.18 1.10 1.10 1.15 1.17 1.24 1.32 1.38 1.44 1.47 1.48 1.48 1.48 1.47 1.45
1.56 1.55 1.56 1.57 1.54 1.48 1.51 1.44 1.32 1.22 1.21 1.22 1.24 1.33 1.39 1.46 1.52 1.54 1.57 1.61 1.63 1.62
1.49 1.48 1.54 1.55 1.61 1.65 1.63 1.58 1.55 1.52 1.47 1.42 1.44 1.55 1.62 1.66 1.65 1.64 1.66 1.74 1.75 1.73
1.52 1.48 1.42 1.45 1.51 1.59 1.68 1.68 1.74 1.65 1.66 1.65 1.63 1.70 1.73 1.79 1.78 1.66 1.71 1.79 1.79 1.81
1.49 1.47 1.52 1.48 1.48 1.50 1.52 1.57 1.61 1.61 1.70 1.72 1.74 1.75 1.78 1.81 1.80 1.72 1.74 1.73 1.73 1.83

GFSNIL_prec_pwat_045.txt.gz
Precipitable_Water
1.29 1.23 1.13 1.04 1.03 1.08 1.11 1.18 1.26 1.30 1.38 1.44 1.43 1.50 1.54 1.51 1.53 1.45 1.40 1.35 1.28 1.25
1.29 1.25 1.14 1.09 1.09 1.10 1.17 1.23 1.26 1.31 1.30 1.40 1.48 1.47 1.51 1.45 1.47 1.51 1.43 1.36 1.36 1.27
1.24 1.24 1.19 1.16 1.08 1.08 1.17 1.23 1.25 1.29 1.29 1.34 1.40 1.45 1.43 1.45 1.43 1.43 1.39 1.34 1.26 1.27
1.21 1.23 1.24 1.18 1.13 1.10 1.13 1.19 1.19 1.23 1.31 1.32 1.38 1.43 1.38 1.36 1.44 1.38 1.35 1.38 1.28 1.17
1.23 1.24 1.21 1.15 1.12 1.13 1.09 1.17 1.16 1.20 1.23 1.29 1.34 1.38 1.37 1.31 1.35 1.40 1.36 1.34 1.33 1.25
1.20 1.19 1.13 1.15 1.13 1.12 1.11 1.17 1.20 1.18 1.15 1.13 1.21 1.30 1.36 1.38 1.38 1.33 1.34 1.38 1.33 1.28
1.14 1.13 1.10 1.08 1.12 1.14 1.14 1.12 1.12 1.14 1.11 1.17 1.23 1.25 1.31 1.33 1.32 1.31 1.28 1.26 1.26 1.30
1.12 1.14 1.13 1.11 1.10 1.13 1.15 1.10 1.09 1.11 1.13 1.12 1.20 1.22 1.20 1.23 1.25 1.24 1.22 1.25 1.26 1.25
1.07 1.08 1.10 1.10 1.11 1.11 1.10 1.11 1.09 1.04 1.02 1.05 1.08 1.17 1.25 1.31 1.29 1.27 1.24 1.19 1.24 1.29
1.13 1.11 1.12 1.12 1.11 1.12 1.09 1.09 1.06 1.05 1.04 1.03 1.11 1.15 1.17 1.23 1.28 1.32 1.35 1.36 1.37 1.36
1.37 1.34 1.40 1.41 1.34 1.34 1.36 1.28 1.15 1.07 1.11 1.12 1.15 1.18 1.20 1.23 1.30 1.37 1.42 1.46 1.50 1.52
1.52 1.53 1.55 1.52 1.48 1.48 1.49 1.47 1.43 1.42 1.37 1.30 1.29 1.33 1.31 1.36 1.39 1.38 1.43 1.54 1.62 1.65
1.58 1.58 1.56 1.61 1.63 1.67 1.70 1.62 1.64 1.60 1.60 1.58 1.55 1.65 1.66 1.68 1.65 1.57 1.60 1.70 1.73 1.79
1.61 1.62 1.65 1.66 1.69 1.63 1.59 1.65 1.67 1.69 1.75 1.75 1.72 1.73 1.77 1.78 1.73 1.66 1.62 1.59 1.64 1.75

GFSNIL_prec_pwat_048.txt.gz
Precipitable_Water
1.27 1.21 1.22 1.20 1.11 1.00 0.97 1.03 1.21 1.26 1.32 1.36 1.46 1.49 1.55 1.49 1.50 1.47 1.36 1.35 1.27 1.23
1.27 1.23 1.19 1.20 1.22 1.09 1.02 1.06 1.21 1.28 1.29 1.34 1.42 1.49 1.50 1.47 1.44 1.52 1.49 1.40 1.35 1.29
1.23 1.25 1.25 1.26 1.22 1.18 1.10 1.10 1.18 1.26 1.32 1.27 1.35 1.40 1.48 1.47 1.48 1.43 1.47 1.48 1.39 1.33
1.23 1.25 1.27 1.24 1.25 1.23 1.18 1.13 1.15 1.25 1.27 1.25 1.25 1.31 1.35 1.42 1.46 1.40 1.35 1.41 1.40 1.32
1.25 1.25 1.23 1.22 1.25 1.28 1.18 1.16 1.13 1.22 1.25 1.24 1.21 1.32 1.30 1.27 1.40 1.40 1.34 1.32 1.30 1.27
1.24 1.22 1.20 1.22 1.25 1.27 1.23 1.15 1.12 1.13 1.11 1.11 1.18 1.22 1.32 1.33 1.32 1.37 1.42 1.40 1.34 1.30
1.23 1.23 1.22 1.25 1.25 1.22 1.23 1.19 1.13 1.07 1.05 1.05 1.08 1.16 1.22 1.29 1.34 1.33 1.30 1.33 1.39 1.39
1.25 1.28 1.27 1.24 1.22 1.21 1.20 1.18 1.15 1.07 1.04 1.08 1.09 1.11 1.14 1.16 1.18 1.21 1.22 1.23 1.22 1.22
1.28 1.23 1.18 1.16 1.14 1.16 1.16 1.16 1.15 1.09 1.04 1.00 1.03 1.03 1.03 1.09 1.11 1.10 1.08 1.05 1.13 1.22
1.18 1.14 1.12 1.12 1.10 1.07 1.07 1.13 1.11 1.10 1.10 1.01 1.00 1.01 1.03 1.07 1.11 1.14 1.15 1.17 1.21 1.25
1.10 1.07 1.11 1.11 1.09 1.09 1.11 1.07 1.09 1.09 1.08 1.05 1.02 1.06 1.07 1.09 1.14 1.15 1.16 1.22 1.26 1.30
1.19 1.15 1.18 1.17 1.16 1.18 1.20 1.19 1.16 1.16 1.15 1.11 1.10 1.15 1.15 1.15 1.16 1.17 1.18 1.27 1.34 1.36
1.48 1.46 1.42 1.46 1.49 1.53 1.54 1.49 1.54 1.51 1.49 1.43 1.42 1.50 1.48 1.46 1.41 1.32 1.35 1.41 1.46 1.54
1.53 1.56 1.61 1.65 1.69 1.68 1.70 1.72 1.68 1.63 1.65 1.66 1.65 1.67 1.72 1.74 1.69 1.60 1.55 1.56 1.58 1.67

GFSNIL_prec_pwat_051.txt.gz
Precipitable_Water
1.30 1.26 1.23 1.28 1.24 1.21 1.19 1.22 1.32 1.31 1.33 1.41 1.48 1.53 1.55 1.57 1.58 1.56 1.39 1.35 1.30 1.24
1.30 1.27 1.21 1.25 1.29 1.28 1.26 1.21 1.24 1.22 1.25 1.33 1.36 1.45 1.50 1.49 1.53 1.55 1.53 1.40 1.39 1.33
1.26 1.27 1.26 1.29 1.23 1.23 1.27 1.27 1.14 1.14 1.23 1.29 1.32 1.41 1.47 1.46 1.50 1.52 1.52 1.53 1.48 1.43
1.23 1.27 1.30 1.27 1.26 1.24 1.28 1.28 1.19 1.10 1.14 1.23 1.25 1.33 1.38 1.39 1.42 1.45 1.49 1.51 1.44 1.39
1.24 1.27 1.26 1.24 1.27 1.29 1.24 1.29 1.25 1.19 1.15 1.22 1.23 1.26 1.25 1.28 1.32 1.34 1.39 1.43 1.43 1.36
1.23 1.25 1.22 1.22 1.25 1.29 1.27 1.26 1.26 1.23 1.13 1.13 1.18 1.20 1.27 1.27 1.24 1.31 1.37 1.42 1.42 1.39
1.21 1.21 1.22 1.25 1.26 1.27 1.27 1.24 1.21 1.19 1.12 1.10 1.13 1.17 1.20 1.25 1.25 1.23 1.30 1.37 1.40 1.41
1.23 1.26 1.26 1.24 1.25 1.25 1.25 1.22 1.21 1.18 1.16 1.10 1.08 1.06 1.08 1.15 1.17 1.18 1.20 1.22 1.24 1.32
1.30 1.29 1.26 1.27 1.28 1.25 1.20 1.19 1.20 1.19 1.17 1.12 1.08 1.04 1.02 1.03 1.06 1.07 1.08 1.07 1.14 1.19
1.33 1.29 1.25 1.28 1.30 1.23 1.16 1.18 1.15 1.17 1.18 1.12 1.10 1.07 1.01 0.99 0.99 1.01 1.03 1.05 1.05 1.05
1.32 1.31 1.28 1.24 1.19 1.17 1.18 1.17 1.15 1.16 1.18 1.14 1.12 1.10 1.04 1.00 1.06 1.09 1.08 1.09 1.11 1.16
1.09 1.18 1.21 1.13 1.10 1.10 1.12 1.14 1.14 1.17 1.17 1.13 1.09 1.10 1.07 1.11 1.13 1.11 1.09 1.12 1.16 1.19
1.19 1.19 1.10 1.05 1.05 1.09 1.14 1.11 1.15 1.13 1.16 1.15 1.09 1.13 1.09 1.15 1.19 1.13 1.09 1.15 1.21 1.24
1.31 1.26 1.20 1.19 1.23 1.27 1.29 1.32 1.34 1.36 1.41 1.41 1.43 1.43 1.42 1.42 1.39 1.32 1.30 1.29 1.33 1.46

GFSNIL_prec_pwat_054.txt.gz
Precipitable_Water
1.19 1.24 1.34 1.36 1.35 1.35 1.35 1.34 1.44 1.48 1.45 1.43 1.53 1.54 1.58 1.63 1.59 1.59 1.43 1.39 1.27 1.21
1.22 1.25 1.33 1.37 1.39 1.37 1.38 1.34 1.35 1.38 1.37 1.39 1.42 1.49 1.52 1.50 1.58 1.61 1.55 1.45 1.38 1.31
1.22 1.28 1.32 1.35 1.32 1.35 1.35 1.36 1.30 1.26 1.26 1.27 1.35 1.41 1.44 1.47 1.54 1.58 1.56 1.54 1.46 1.38
1.23 1.27 1.33 1.32 1.32 1.36 1.41 1.38 1.34 1.25 1.18 1.18 1.32 1.37 1.36 1.40 1.47 1.52 1.56 1.56 1.48 1.44
1.29 1.27 1.28 1.29 1.28 1.35 1.36 1.40 1.34 1.28 1.22 1.14 1.24 1.34 1.30 1.30 1.35 1.39 1.42 1.51 1.50 1.40
1.20 1.22 1.22 1.22 1.26 1.32 1.34 1.35 1.34 1.30 1.24 1.20 1.23 1.29 1.30 1.29 1.27 1.35 1.39 1.44 1.46 1.43
1.12 1.14 1.16 1.20 1.25 1.30 1.33 1.32 1.31 1.30 1.27 1.25 1.24 1.23 1.24 1.24 1.26 1.27 1.34 1.42 1.43 1.47
1.20 1.20 1.22 1.23 1.25 1.29 1.31 1.31 1.32 1.30 1.27 1.26 1.25 1.17 1.17 1.16 1.20 1.24 1.24 1.27 1.35 1.41
1.33 1.29 1.22 1.25 1.29 1.31 1.30 1.27 1.29 1.26 1.24 1.19 1.18 1.12 1.07 1.08 1.12 1.16 1.17 1.16 1.23 1.26
1.32 1.23 1.24 1.29 1.30 1.27 1.26 1.26 1.22 1.23 1.21 1.17 1.17 1.12 1.05 1.01 1.02 1.07 1.08 1.09 1.09 1.11
1.39 1.31 1.29 1.27 1.24 1.27 1.30 1.26 1.23 1.20 1.20 1.20 1.17 1.14 1.09 1.05 1.04 1.03 1.04 1.08 1.09 1.09
1.40 1.40 1.39 1.35 1.32 1.31 1.32 1.30 1.24 1.21 1.17 1.17 1.14 1.14 1.09 1.07 1.08 1.04 1.05 1.11 1.16 1.20
1.54 1.49 1.40 1.40 1.38 1.34 1.33 1.26 1.23 1.18 1.22 1.19 1.13 1.17 1.10 1.09 1.11 1.08 1.08 1.14 1.16 1.16
1.61 1.54 1.47 1.46 1.52 1.45 1.32 1.23 1.16 1.16 1.21 1.18 1.17 1.15 1.09 1.08 1.13 1.13 1.12 1.10 1.10 1.17

GFSNIL_prec_pwat_057.txt.gz
Precipitable_Water
1.19 1.21 1.26 1.36 1.41 1.41 1.41 1.42 1.67 1.60 1.51 1.55 1.65 1.62 1.69 1.66 1.61 1.57 1.43 1.38 1.29 1.31
1.14 1.12 1.19 1.25 1.37 1.47 1.42 1.50 1.47 1.50 1.44 1.48 1.52 1.56 1.57 1.52 1.62 1.81 1.54 1.43 1.37 1.28
1.19 1.18 1.17 1.28 1.41 1.37 1.48 1.43 1.53 1.40 1.37 1.39 1.43 1.47 1.49 1.50 1.53 1.58 1.57 1.47 1.48 1.34
1.24 1.25 1.20 1.30 1.35 1.42 1.40 1.49 1.36 1.40 1.32 1.28 1.30 1.37 1.44 1.38 1.56 1.52 1.49 1.57 1.53 1.50
1.29 1.26 1.18 1.12 1.31 1.39 1.37 1.42 1.41 1.41 1.35 1.30 1.21 1.30 1.35 1.36 1.36 1.45 1.44 1.48 1.49 1.45
1.30 1.27 1.17 1.22 1.25 1.33 1.34 1.35 1.36 1.38 1.35 1.30 1.24 1.22 1.33 1.32 1.32 1.39 1.39 1.42 1.45 1.46
1.21 1.27 1.29 1.29 1.26 1.27 1.31 1.27 1.28 1.31 1.30 1.30 1.30 1.26 1.28 1.33 1.29 1.32 1.31 1.37 1.41 1.41
1.26 1.25 1.31 1.29 1.31 1.28 1.28 1.25 1.26 1.28 1.31 1.31 1.32 1.32 1.25 1.27 1.28 1.29 1.27 1.30 1.35 1.37
1.43 1.36 1.22 1.23 1.25 1.26 1.23 1.24 1.26 1.27 1.28 1.28 1.28 1.29 1.24 1.21 1.21 1.28 1.23 1.20 1.27 1.28
1.43 1.38 1.30 1.23 1.23 1.21 1.18 1.21 1.24 1.27 1.29 1.26 1.25 1.21 1.18 1.13 1.13 1.19 1.18 1.15 1.14 1.17
1.48 1.39 1.38 1.32 1.23 1.22 1.25 1.23 1.25 1.26 1.27 1.28 1.26 1.19 1.16 1.14 1.13 1.11 1.10 1.17 1.13 1.07
1.54 1.48 1.47 1.32 1.28 1.31 1.29 1.28 1.28 1.30 1.27 1.24 1.21 1.18 1.14 1.17 1.15 1.15 1.09 1.09 1.06 1.08
1.69 1.57 1.48 1.49 1.43 1.38 1.34 1.28 1.26 1.24 1.29 1.28 1.19 1.20 1.16 1.16 1.16 1.11 1.06 1.09 1.10 1.10
1.70 1.70 1.66 1.65 1.62 1.55 1.44 1.40 1.34 1.33 1.36 1.33 1.29 1.28 1.18 1.13 1.15 1.08 1.06 1.03 1.08 1.17

GFSNIL_prec_pwat_060.txt.gz
Precipitable_Water
1.24 1.18 1.31 1.48 1.37 1.58 1.41 1.57 1.64 1.62 1.57 1.42 1.64 1.58 1.75 1.57 1.53 1.38 1.27 1.27 1.34 1.36
1.13 1.13 1.19 1.32 1.42 1.39 1.41 1.55 1.61 1.62 1.58 1.46 1.45 1.56 1.56 1.50 1.60 1.82 1.53 1.25 1.20 1.20
1.02 1.07 1.08 1.18 1.26 1.35 1.34 1.39 1.75 1.60 1.50 1.37 1.37 1.41 1.51 1.43 1.49 1.57 1.60 1.42 1.37 1.22
1.18 1.09 1.03 1.11 1.11 1.29 1.34 1.42 1.42 1.56 1.48 1.38 1.27 1.36 1.37 1.33 1.51 1.48 1.48 1.53 1.54 1.38
1.33 1.24 1.12 1.00 1.16 1.25 1.28 1.39 1.40 1.39 1.43 1.31 1.29 1.27 1.26 1.27 1.29 1.44 1.44 1.41 1.44 1.48
1.36 1.33 1.20 1.11 1.06 1.22 1.24 1.32 1.33 1.33 1.24 1.29 1.26 1.22 1.19 1.24 1.25 1.29 1.42 1.44 1.38 1.39
1.26 1.28 1.28 1.25 1.11 1.25 1.26 1.18 1.26 1.27 1.30 1.29 1.28 1.22 1.17 1.23 1.27 1.23 1.25 1.36 1.32 1.36
1.34 1.30 1.34 1.32 1.27 1.16 1.21 1.23 1.24 1.23 1.27 1.32 1.32 1.25 1.19 1.19 1.25 1.27 1.20 1.24 1.32 1.33
1.54 1.48 1.33 1.30 1.32 1.34 1.26 1.21 1.23 1.22 1.22 1.25 1.29 1.27 1.27 1.24 1.20 1.27 1.25 1.18 1.24 1.35
1.55 1.51 1.47 1.41 1.31 1.37 1.36 1.37 1.24 1.19 1.20 1.20 1.25 1.27 1.27 1.26 1.25 1.21 1.24 1.24 1.23 1.22
1.59 1.53 1.52 1.50 1.41 1.33 1.41 1.37 1.33 1.25 1.19 1.17 1.20 1.25 1.24 1.26 1.27 1.23 1.22 1.20 1.16 1.19
1.61 1.60 1.52 1.44 1.41 1.43 1.37 1.35 1.31 1.29 1.21 1.15 1.16 1.24 1.24 1.25 1.22 1.20 1.17 1.18 1.19 1.21
1.70 1.66 1.61 1.53 1.49 1.47 1.43 1.33 1.32 1.25 1.27 1.28 1.22 1.28 1.28 1.27 1.24 1.14 1.14 1.18 1.16 1.13
1.68 1.68 1.74 1.76 1.67 1.60 1.50 1.43 1.38 1.33 1.35 1.38 1.34 1.31 1.33 1.29 1.25 1.18 1.16 1.11 1.07 1.11

GFSNIL_prec_pwat_063.txt.gz
Precipitable_Water
1.21 1.20 1.29 1.41 1.42 1.47 1.47 1.35 1.49 1.53 1.61 1.52 1.50 1.58 1.61 1.56 1.44 1.37 1.42 1.43 1.45 1.39
1.18 1.16 1.19 1.33 1.47 1.50 1.54 1.43 1.48 1.51 1.49 1.48 1.43 1.40 1.44 1.49 1.48 1.46 1.27 1.27 1.29 1.34
1.09 1.13 1.18 1.27 1.32 1.39 1.42 1.48 1.49 1.53 1.47 1.44 1.40 1.29 1.37 1.38 1.49 1.58 1.48 1.30 1.14 1.15
0.98 1.09 1.09 1.17 1.21 1.32 1.32 1.42 1.41 1.54 1.52 1.46 1.38 1.27 1.26 1.30 1.32 1.41 1.43 1.39 1.26 1.23
1.05 0.99 1.03 0.97 1.12 1.20 1.23 1.31 1.49 1.45 1.48 1.46 1.39 1.31 1.19 1.19 1.23 1.32 1.40 1.42 1.39 1.42
1.34 1.09 0.96 0.96 0.94 1.07 1.11 1.17 1.34 1.52 1.43 1.39 1.34 1.25 1.18 1.18 1.16 1.19 1.28 1.38 1.42 1.33
1.26 1.30 1.17 1.05 0.98 1.01 1.00 1.09 1.15 1.29 1.33 1.30 1.26 1.24 1.18 1.17 1.13 1.11 1.17 1.26 1.32 1.34
1.39 1.31 1.37 1.29 1.15 1.03 1.10 1.04 1.14 1.14 1.28 1.27 1.25 1.22 1.17 1.17 1.17 1.13 1.11 1.11 1.18 1.27
1.58 1.40 1.24 1.29 1.30 1.22 1.07 1.14 1.07 1.12 1.13 1.20 1.23 1.21 1.20 1.18 1.18 1.23 1.18 1.10 1.11 1.14
1.73 1.55 1.40 1.30 1.27 1.25 1.23 1.19 1.20 1.16 1.15 1.11 1.16 1.20 1.17 1.17 1.18 1.20 1.21 1.17 1.17 1.15
1.73 1.69 1.63 1.49 1.36 1.28 1.26 1.24 1.19 1.24 1.24 1.16 1.14 1.20 1.21 1.19 1.20 1.22 1.23 1.22 1.23 1.19
1.70 1.68 1.69 1.60 1.48 1.43 1.36 1.24 1.21 1.28 1.27 1.24 1.22 1.25 1.26 1.25 1.21 1.19 1.20 1.23 1.26 1.24
1.72 1.72 1.67 1.70 1.57 1.58 1.50 1.40 1.38 1.26 1.32 1.32 1.27 1.32 1.29 1.27 1.21 1.15 1.15 1.23 1.25 1.27
1.78 1.69 1.68 1.73 1.77 1.65 1.60 1.53 1.45 1.37 1.33 1.34 1.35 1.31 1.29 1.28 1.27 1.20 1.14 1.14 1.14 1.19

GFSNIL_prec_pwat_066.txt.gz
Precipitable_Water
1.35 1.45 1.53 1.48 1.43 1.46 1.61 1.52 1.53 1.51 1.58 1.53 1.45 1.52 1.55 1.44 1.31 1.39 1.45 1.42 1.41 1.38
1.19 1.32 1.38 1.50 1.55 1.44 1.54 1.43 1.47 1.53 1.55 1.56 1.45 1.41 1.48 1.42 1.36 1.26 1.36 1.35 1.36 1.35
1.11 1.20 1.32 1.38 1.41 1.45 1.52 1.48 1.46 1.50 1.51 1.48 1.46 1.45 1.34 1.39 1.45 1.32 1.21 1.23 1.24 1.19
1.01 1.13 1.23 1.27 1.32 1.39 1.48 1.53 1.45 1.47 1.47 1.47 1.44 1.42 1.29 1.27 1.32 1.39 1.34 1.27 1.17 1.09
1.11 0.99 1.13 1.17 1.26 1.33 1.38 1.47 1.46 1.44 1.45 1.47 1.43 1.40 1.27 1.16 1.25 1.24 1.31 1.29 1.22 1.13
1.31 1.12 0.95 1.08 1.19 1.28 1.32 1.39 1.45 1.44 1.36 1.40 1.40 1.38 1.29 1.21 1.15 1.20 1.24 1.38 1.35 1.26
1.35 1.35 1.19 1.01 1.07 1.12 1.24 1.25 1.31 1.35 1.37 1.37 1.38 1.38 1.35 1.27 1.14 1.11 1.18 1.25 1.34 1.40
1.38 1.38 1.41 1.33 1.15 1.04 1.03 1.13 1.22 1.23 1.30 1.35 1.37 1.33 1.28 1.27 1.19 1.10 1.06 1.09 1.16 1.24
1.59 1.48 1.34 1.36 1.37 1.31 1.07 1.00 1.03 1.15 1.14 1.22 1.30 1.32 1.28 1.24 1.17 1.13 1.09 1.05 1.05 1.10
1.81 1.67 1.54 1.41 1.37 1.33 1.29 1.18 1.04 1.03 1.07 1.08 1.18 1.28 1.28 1.26 1.21 1.14 1.10 1.08 1.09 1.11
1.91 1.85 1.76 1.63 1.44 1.34 1.33 1.29 1.20 1.13 1.09 1.08 1.14 1.21 1.20 1.20 1.23 1.17 1.11 1.13 1.12 1.12
1.95 1.93 1.88 1.76 1.68 1.57 1.45 1.29 1.22 1.23 1.25 1.14 1.09 1.17 1.22 1.22 1.18 1.13 1.09 1.13 1.16 1.18
1.98 1.98 1.89 1.85 1.84 1.84 1.71 1.57 1.43 1.24 1.23 1.30 1.24 1.27 1.26 1.24 1.18 1.08 1.08 1.13 1.14 1.18
1.90 1.94 1.91 1.90 1.88 1.89 1.79 1.73 1.62 1.51 1.39 1.27 1.26 1.27 1.30 1.30 1.29 1.22 1.10 1.06 1.04 1.08

GFSNIL_prec_pwat_069.txt.gz
Precipitable_Water
1.19 1.40 1.47 1.55 1.54 1.50 1.49 1.60 1.65 1.60 1.57 1.58 1.58 1.58 1.62 1.47 1.37 1.43 1.37 1.37 1.42 1.35
1.13 1.28 1.43 1.52 1.54 1.51 1.59 1.69 1.63 1.65 1.56 1.58 1.58 1.52 1.52 1.50 1.38 1.36 1.38 1.37 1.39 1.36
1.09 1.15 1.29 1.47 1.45 1.51 1.58 1.64 1.55 1.58 1.61 1.58 1.61 1.65 1.48 1.52 1.49 1.35 1.29 1.34 1.31 1.32
1.09 1.07 1.17 1.28 1.37 1.45 1.55 1.52 1.52 1.53 1.52 1.52 1.52 1.60 1.53 1.42 1.44 1.39 1.28 1.26 1.25 1.24
1.17 1.09 1.02 1.09 1.25 1.38 1.37 1.49 1.56 1.52 1.49 1.53 1.53 1.53 1.47 1.39 1.34 1.35 1.32 1.29 1.22 1.17
1.29 1.19 1.06 0.98 1.08 1.24 1.31 1.35 1.46 1.49 1.47 1.44 1.46 1.47 1.42 1.38 1.31 1.23 1.29 1.35 1.37 1.30
1.34 1.30 1.23 1.15 0.99 1.05 1.17 1.25 1.32 1.39 1.44 1.46 1.44 1.44 1.42 1.36 1.30 1.21 1.20 1.24 1.31 1.36
1.43 1.43 1.37 1.30 1.22 1.07 0.96 1.07 1.20 1.30 1.36 1.44 1.46 1.46 1.41 1.35 1.27 1.23 1.17 1.20 1.20 1.23
1.53 1.48 1.42 1.40 1.36 1.32 1.25 1.00 0.97 1.06 1.18 1.24 1.33 1.39 1.41 1.39 1.33 1.29 1.20 1.10 1.14 1.19
1.68 1.58 1.52 1.50 1.47 1.37 1.31 1.34 1.21 1.01 0.96 0.99 1.11 1.22 1.26 1.32 1.34 1.29 1.22 1.17 1.14 1.14
1.77 1.76 1.70 1.62 1.52 1.50 1.45 1.35 1.29 1.28 1.23 1.06 0.98 0.99 1.09 1.16 1.23 1.27 1.26 1.24 1.19 1.15
1.91 1.90 1.86 1.72 1.64 1.64 1.61 1.49 1.38 1.31 1.28 1.24 1.19 1.14 1.05 1.03 1.05 1.10 1.12 1.16 1.16 1.18
1.98 2.01 1.98 1.93 1.82 1.80 1.79 1.68 1.63 1.46 1.35 1.24 1.20 1.28 1.24 1.21 1.15 1.05 1.07 1.11 1.13 1.12
1.95 1.95 1.95 1.96 1.99 1.94 1.84 1.82 1.72 1.63 1.61 1.48 1.34 1.23 1.26 1.29 1.30 1.16 1.08 1.04 1.04 1.07

GFSNIL_prec_pwat_072.txt.gz
Precipitable_Water
1.22 1.26 1.32 1.44 1.48 1.52 1.45 1.46 1.59 1.61 1.57 1.67 1.68 1.65 1.61 1.54 1.49 1.47 1.43 1.41 1.40 1.35
1.23 1.22 1.26 1.40 1.48 1.56 1.52 1.50 1.69 1.72 1.63 1.59 1.69 1.65 1.55 1.54 1.50 1.49 1.46 1.40 1.41 1.38
1.22 1.21 1.21 1.36 1.42 1.45 1.50 1.60 1.62 1.64 1.64 1.61 1.65 1.65 1.60 1.47 1.51 1.45 1.40 1.44 1.40 1.39
1.29 1.22 1.22 1.19 1.34 1.43 1.44 1.54 1.58 1.56 1.57 1.63 1.64 1.66 1.65 1.57 1.46 1.37 1.36 1.32 1.30 1.33
1.36 1.29 1.20 1.14 1.18 1.32 1.38 1.49 1.49 1.51 1.46 1.47 1.54 1.65 1.59 1.53 1.52 1.37 1.27 1.31 1.24 1.21
1.45 1.34 1.25 1.20 1.13 1.16 1.22 1.31 1.40 1.44 1.43 1.45 1.48 1.53 1.55 1.53 1.48 1.42 1.31 1.28 1.30 1.30
1.51 1.46 1.37 1.30 1.25 1.16 1.10 1.16 1.22 1.29 1.36 1.42 1.45 1.47 1.48 1.46 1.46 1.41 1.34 1.28 1.25 1.28
1.49 1.54 1.53 1.44 1.36 1.32 1.26 1.09 1.11 1.18 1.23 1.31 1.34 1.34 1.34 1.36 1.35 1.38 1.35 1.34 1.32 1.28
1.63 1.51 1.52 1.52 1.47 1.41 1.35 1.30 1.15 1.00 1.07 1.11 1.22 1.27 1.29 1.31 1.27 1.28 1.28 1.23 1.29 1.32
1.72 1.65 1.51 1.53 1.51 1.47 1.41 1.41 1.36 1.26 1.07 0.96 1.03 1.11 1.16 1.20 1.23 1.20 1.19 1.18 1.19 1.18
1.76 1.70 1.69 1.59 1.53 1.52 1.52 1.45 1.42 1.41 1.38 1.30 1.17 1.06 1.02 1.05 1.10 1.12 1.10 1.10 1.10 1.11
1.79 1.77 1.73 1.67 1.64 1.68 1.61 1.53 1.48 1.47 1.43 1.37 1.34 1.35 1.31 1.20 1.03 0.97 0.97 1.05 1.08 1.05
1.88 1.89 1.85 1.82 1.80 1.80 1.79 1.64 1.59 1.54 1.50 1.44 1.37 1.39 1.36 1.38 1.36 1.17 1.00 0.98 0.99 0.98
1.93 1.97 1.99 1.98 2.01 2.00 1.95 1.92 1.80 1.66 1.62 1.52 1.46 1.43 1.43 1.39 1.35 1.29 1.23 1.10 1.01 1.04

GFSNIL_prec_pwat_075.txt.gz
Precipitable_Water
1.39 1.35 1.37 1.46 1.48 1.60 1.61 1.55 1.62 1.63 1.68 1.76 1.70 1.67 1.64 1.57 1.55 1.50 1.42 1.44 1.46 1.39
1.40 1.36 1.30 1.40 1.48 1.56 1.62 1.61 1.57 1.65 1.66 1.65 1.70 1.67 1.62 1.52 1.53 1.54 1.48 1.45 1.43 1.40
1.45 1.43 1.35 1.38 1.37 1.47 1.56 1.62 1.59 1.64 1.68 1.69 1.67 1.68 1.63 1.54 1.48 1.47 1.47 1.44 1.40 1.40
1.46 1.43 1.44 1.35 1.33 1.45 1.53 1.60 1.56 1.67 1.65 1.61 1.64 1.66 1.64 1.62 1.55 1.40 1.41 1.41 1.37 1.35
1.54 1.50 1.43 1.38 1.31 1.33 1.43 1.55 1.53 1.57 1.63 1.58 1.64 1.70 1.66 1.61 1.58 1.52 1.38 1.33 1.32 1.26
1.53 1.55 1.49 1.46 1.39 1.29 1.28 1.40 1.53 1.52 1.51 1.51 1.47 1.53 1.60 1.59 1.61 1.56 1.47 1.40 1.31 1.30
1.50 1.52 1.52 1.54 1.52 1.44 1.31 1.23 1.33 1.40 1.44 1.47 1.48 1.48 1.51 1.55 1.51 1.51 1.49 1.42 1.34 1.26
1.52 1.55 1.63 1.53 1.51 1.53 1.50 1.39 1.25 1.25 1.31 1.40 1.43 1.44 1.43 1.42 1.42 1.39 1.37 1.44 1.41 1.37
1.67 1.62 1.54 1.55 1.52 1.49 1.48 1.50 1.47 1.36 1.22 1.17 1.28 1.33 1.30 1.33 1.30 1.31 1.29 1.25 1.33 1.37
1.77 1.72 1.64 1.58 1.55 1.50 1.44 1.46 1.44 1.42 1.42 1.31 1.16 1.14 1.22 1.26 1.27 1.25 1.24 1.22 1.20 1.21
1.86 1.83 1.88 1.80 1.68 1.60 1.53 1.49 1.45 1.42 1.43 1.38 1.35 1.28 1.11 1.08 1.15 1.22 1.19 1.18 1.18 1.18
1.90 1.89 1.90 1.86 1.80 1.77 1.62 1.54 1.50 1.50 1.47 1.43 1.39 1.39 1.36 1.34 1.25 1.11 1.08 1.11 1.11 1.11
1.91 1.92 1.91 1.92 1.93 1.95 1.85 1.68 1.63 1.56 1.55 1.50 1.43 1.47 1.44 1.43 1.41 1.33 1.27 1.22 1.14 1.07
1.85 1.92 1.94 1.96 2.01 2.02 1.97 1.89 1.76 1.68 1.70 1.67 1.59 1.55 1.52 1.48 1.43 1.36 1.33 1.27 1.23 1.22

GFSNIL_prec_pwat_078.txt.gz
Precipitable_Water
1.51 1.43 1.50 1.60 1.60 1.62 1.72 1.78 1.69 1.66 1.69 1.74 1.70 1.64 1.67 1.60 1.51 1.59 1.44 1.48 1.44 1.42
1.56 1.48 1.42 1.51 1.63 1.65 1.73 1.75 1.71 1.71 1.71 1.70 1.71 1.69 1.70 1.56 1.55 1.56 1.52 1.51 1.40 1.38
1.57 1.56 1.53 1.47 1.46 1.55 1.67 1.74 1.72 1.67 1.73 1.75 1.69 1.71 1.66 1.57 1.55 1.56 1.56 1.50 1.48 1.42
1.60 1.60 1.59 1.52 1.45 1.46 1.56 1.65 1.71 1.73 1.74 1.83 1.71 1.65 1.66 1.58 1.56 1.48 1.48 1.48 1.44 1.38
1.67 1.66 1.60 1.55 1.51 1.51 1.47 1.60 1.68 1.74 1.73 1.79 1.82 1.69 1.67 1.60 1.59 1.57 1.48 1.41 1.41 1.36
1.64 1.61 1.59 1.57 1.60 1.57 1.51 1.45 1.53 1.64 1.65 1.68 1.71 1.74 1.65 1.67 1.66 1.62 1.58 1.50 1.41 1.34
1.65 1.54 1.60 1.57 1.58 1.62 1.59 1.51 1.39 1.44 1.56 1.61 1.70 1.65 1.63 1.56 1.60 1.62 1.59 1.59 1.50 1.42
1.61 1.60 1.65 1.56 1.67 1.59 1.63 1.58 1.54 1.43 1.37 1.44 1.53 1.57 1.59 1.55 1.52 1.56 1.54 1.51 1.49 1.48
1.70 1.67 1.61 1.59 1.53 1.74 1.57 1.59 1.58 1.51 1.43 1.35 1.28 1.36 1.44 1.48 1.54 1.53 1.50 1.43 1.43 1.44
1.81 1.81 1.75 1.75 1.66 1.57 1.53 1.62 1.53 1.51 1.50 1.41 1.35 1.27 1.18 1.27 1.34 1.37 1.39 1.40 1.40 1.36
1.92 1.88 1.93 1.86 1.79 1.71 1.65 1.56 1.55 1.52 1.51 1.46 1.42 1.35 1.28 1.21 1.16 1.17 1.25 1.33 1.36 1.36
1.91 1.90 1.88 1.96 1.91 1.90 1.80 1.74 1.68 1.62 1.55 1.52 1.47 1.43 1.35 1.32 1.29 1.20 1.10 1.10 1.17 1.22
1.80 1.86 1.85 1.94 2.05 2.10 2.05 1.95 1.89 1.77 1.71 1.58 1.51 1.56 1.50 1.45 1.39 1.29 1.26 1.29 1.25 1.17
1.60 1.72 1.85 1.95 1.99 2.08 2.11 2.05 1.99 1.92 1.89 1.70 1.61 1.59 1.59 1.57 1.52 1.39 1.33 1.32 1.32 1.33

GFSNIL_prec_pwat_081.txt.gz
Precipitable_Water
1.58 1.53 1.46 1.58 1.70 1.59 1.87 1.82 1.98 1.66 1.70 1.75 1.73 1.70 1.67 1.63 1.54 1.51 1.48 1.37 1.39 1.45
1.59 1.54 1.51 1.59 1.68 1.68 1.75 2.06 2.05 1.66 1.69 1.70 1.73 1.75 1.83 1.63 1.61 1.60 1.64 1.50 1.40 1.39
1.66 1.65 1.57 1.51 1.52 1.60 1.68 1.72 2.13 1.77 1.70 1.77 1.74 1.72 1.69 1.71 1.60 1.49 1.55 1.50 1.54 1.40
1.68 1.69 1.71 1.58 1.56 1.49 1.51 1.63 1.67 1.76 1.71 1.82 1.80 1.74 1.72 1.56 1.87 1.63 1.49 1.52 1.57 1.46
1.75 1.77 1.72 1.69 1.64 1.64 1.50 1.54 1.56 1.66 1.75 1.84 1.82 1.85 1.72 1.62 1.58 1.55 1.54 1.49 1.44 1.39
1.70 1.70 1.70 1.67 1.71 1.67 1.61 1.54 1.51 1.62 1.67 1.76 1.76 1.82 1.83 1.75 1.65 1.72 1.64 1.60 1.52 1.43
1.67 1.71 1.69 1.71 1.70 1.71 1.68 1.61 1.55 1.46 1.52 1.64 1.71 1.70 1.75 1.75 1.76 1.79 1.69 1.66 1.59 1.53
1.75 1.74 1.73 1.71 1.69 1.67 1.68 1.66 1.64 1.59 1.50 1.46 1.52 1.59 1.60 1.62 1.60 1.66 1.63 1.69 1.68 1.55
1.81 1.82 1.79 1.71 1.74 1.70 1.67 1.74 1.70 1.61 1.55 1.47 1.43 1.34 1.35 1.52 1.54 1.49 1.50 1.52 1.58 1.50
1.84 1.90 1.87 1.83 1.75 1.69 1.67 1.70 1.73 1.82 1.68 1.51 1.44 1.38 1.28 1.22 1.30 1.33 1.44 1.47 1.46 1.41
1.81 1.79 1.84 1.89 1.82 1.79 1.79 1.74 1.68 1.68 1.71 1.72 1.59 1.48 1.39 1.30 1.27 1.26 1.24 1.28 1.39 1.39
1.82 1.81 1.85 1.86 1.89 1.94 1.94 1.88 1.84 1.79 1.75 1.74 1.67 1.67 1.56 1.46 1.38 1.29 1.25 1.26 1.23 1.20
1.64 1.75 1.79 1.86 1.91 2.00 2.08 2.08 2.01 1.93 1.90 1.91 1.83 1.83 1.70 1.63 1.54 1.40 1.33 1.35 1.32 1.26
1.20 1.42 1.62 1.75 1.86 1.90 1.89 1.95 2.03 2.00 2.04 2.07 2.06 2.00 1.87 1.69 1.63 1.53 1.45 1.40 1.38 1.40

GFSNIL_prec_pwat_084.txt.gz
Precipitable_Water
1.32 1.42 1.55 1.73 1.75 1.68 1.93 2.07 2.02 1.91 1.68 1.70 1.69 1.61 1.60 1.57 1.36 1.42 1.28 1.15 1.14 1.38
1.47 1.39 1.27 1.38 1.55 1.64 1.79 1.95 2.11 2.11 1.72 1.58 1.70 1.71 1.76 1.55 1.61 1.59 1.62 1.40 1.24 1.30
1.53 1.49 1.49 1.53 1.51 1.64 1.90 1.88 1.97 2.24 1.80 1.60 1.71 1.71 1.66 1.63 1.61 1.57 1.50 1.43 1.45 1.23
1.59 1.62 1.59 1.51 1.44 1.43 1.62 1.82 1.84 1.56 1.78 1.63 1.71 1.72 1.65 1.60 1.75 1.78 1.52 1.49 1.56 1.60
1.63 1.66 1.65 1.58 1.57 1.53 1.41 1.42 1.55 1.71 1.70 1.72 1.83 1.77 1.85 1.57 1.50 1.63 1.53 1.42 1.44 1.40
1.61 1.63 1.63 1.64 1.67 1.68 1.59 1.53 1.45 1.41 1.55 1.65 1.75 1.64 1.79 1.79 1.60 1.61 1.69 1.62 1.52 1.42
1.78 1.67 1.66 1.72 1.79 1.71 1.71 1.63 1.57 1.51 1.49 1.54 1.61 1.62 1.61 1.69 1.70 1.62 1.66 1.70 1.63 1.53
2.07 1.86 1.78 1.78 1.75 1.77 1.75 1.69 1.68 1.61 1.55 1.57 1.55 1.55 1.47 1.52 1.57 1.56 1.55 1.61 1.65 1.66
2.12 2.03 1.81 1.81 1.84 1.86 1.74 1.81 1.76 1.67 1.61 1.55 1.50 1.50 1.49 1.51 1.47 1.52 1.43 1.40 1.47 1.46
1.97 1.99 1.97 1.90 1.91 1.88 1.82 1.75 1.70 1.75 1.79 1.74 1.69 1.60 1.49 1.45 1.47 1.46 1.49 1.51 1.51 1.49
1.86 1.92 1.92 1.92 1.91 1.90 1.90 1.81 1.79 1.70 1.73 1.76 1.76 1.80 1.72 1.59 1.53 1.42 1.33 1.34 1.42 1.48
1.73 1.76 1.86 1.86 1.81 1.86 1.87 1.85 1.84 1.85 1.82 1.78 1.78 1.83 1.77 1.79 1.70 1.57 1.45 1.38 1.36 1.37
1.33 1.46 1.58 1.73 1.82 1.89 1.90 1.87 1.92 1.93 2.04 2.00 1.95 2.01 1.88 1.86 1.81 1.63 1.61 1.61 1.53 1.43
1.09 1.08 1.17 1.29 1.51 1.71 1.83 1.86 1.90 1.93 2.03 2.09 2.13 2.11 2.09 1.99 1.97 1.91 1.75 1.61 1.57 1.58

GFSNIL_prec_pwat_087.txt.gz
Precipitable_Water
1.60 1.77 1.76 1.78 1.78 1.82 1.72 1.74 1.76 1.78 1.72 1.67 1.53 1.53 1.59 1.44 1.27 1.37 1.29 1.18 1.24 1.31
1.48 1.56 1.57 1.72 1.74 1.75 1.81 1.88 1.99 2.05 1.73 1.60 1.69 1.60 1.57 1.50 1.46 1.49 1.40 1.21 1.10 1.16
1.40 1.36 1.42 1.62 1.58 1.61 1.64 1.67 1.97 2.00 1.69 1.53 1.60 1.62 1.60 1.59 1.56 1.58 1.50 1.42 1.29 1.30
1.44 1.49 1.47 1.43 1.55 1.62 1.63 1.72 1.73 1.83 1.83 1.64 1.65 1.59 1.60 1.57 1.66 1.65 1.58 1.46 1.45 1.30
1.57 1.58 1.52 1.48 1.47 1.54 1.50 1.55 1.55 1.57 1.49 1.71 1.66 1.72 1.73 1.61 1.56 1.55 1.58 1.39 1.37 1.33
1.63 1.61 1.58 1.60 1.58 1.53 1.52 1.50 1.49 1.48 1.51 1.50 1.56 1.71 1.71 1.79 1.72 1.58 1.56 1.55 1.46 1.42
1.84 1.85 1.80 1.76 1.78 1.72 1.66 1.58 1.54 1.48 1.43 1.48 1.51 1.61 1.61 1.62 1.63 1.63 1.61 1.66 1.70 1.60
1.86 2.03 2.01 1.97 1.86 1.92 1.90 1.82 1.71 1.62 1.56 1.56 1.54 1.52 1.50 1.50 1.53 1.56 1.60 1.61 1.59 1.60
1.77 1.83 2.15 2.09 1.95 1.87 1.92 1.92 1.91 1.81 1.69 1.58 1.55 1.61 1.58 1.55 1.51 1.52 1.54 1.47 1.50 1.52
2.11 2.15 2.03 2.07 2.00 1.86 1.88 1.94 1.86 1.89 1.89 1.83 1.78 1.79 1.69 1.69 1.59 1.52 1.48 1.49 1.48 1.51
1.83 1.91 1.98 1.98 1.99 1.95 1.94 1.96 1.91 1.88 1.87 1.82 1.86 1.93 1.90 1.91 1.78 1.63 1.58 1.52 1.51 1.52
1.61 1.66 1.73 1.79 1.90 1.93 1.87 1.86 1.89 1.92 1.87 1.85 1.84 1.88 1.90 1.91 1.89 1.78 1.68 1.65 1.61 1.51
1.48 1.45 1.48 1.57 1.64 1.77 1.85 1.84 1.83 1.80 1.83 1.85 1.90 1.96 1.97 1.96 1.95 1.84 1.74 1.85 1.80 1.71
1.06 1.07 1.13 1.14 1.17 1.20 1.36 1.62 1.75 1.80 1.82 1.87 1.99 1.96 2.03 2.12 2.06 1.97 1.96 1.83 1.83 1.94

GFSNIL_prec_pwat_090.txt.gz
Precipitable_Water
1.57 1.64 1.80 1.81 1.85 1.74 1.82 1.67 1.76 1.79 1.73 1.61 1.53 1.47 1.51 1.32 1.35 1.36 1.38 1.32 1.38 1.38
1.55 1.59 1.70 1.77 1.82 1.81 1.93 1.97 1.86 1.89 1.81 1.70 1.61 1.48 1.59 1.46 1.32 1.28 1.35 1.29 1.33 1.30
1.47 1.55 1.60 1.70 1.73 1.73 1.75 1.73 1.92 2.04 1.84 1.54 1.55 1.66 1.61 1.50 1.49 1.40 1.43 1.34 1.25 1.23
1.36 1.39 1.36 1.39 1.61 1.61 1.63 1.65 1.83 1.98 1.97 1.69 1.49 1.60 1.58 1.59 1.59 1.44 1.42 1.42 1.29 1.22
1.37 1.41 1.43 1.34 1.44 1.59 1.56 1.67 1.71 1.79 1.78 1.66 1.67 1.67 1.60 1.60 1.58 1.53 1.62 1.48 1.35 1.31
1.61 1.55 1.52 1.55 1.56 1.54 1.50 1.44 1.50 1.53 1.57 1.51 1.58 1.66 1.76 1.79 1.82 1.64 1.56 1.54 1.49 1.36
1.73 1.71 1.71 1.69 1.73 1.71 1.64 1.57 1.51 1.51 1.49 1.51 1.57 1.59 1.66 1.68 1.73 1.68 1.71 1.59 1.61 1.61
1.94 1.91 1.91 1.83 1.88 1.91 1.88 1.79 1.70 1.65 1.60 1.55 1.54 1.53 1.55 1.61 1.58 1.59 1.61 1.68 1.71 1.67
1.99 1.99 2.01 2.01 1.97 1.99 1.93 2.00 1.95 1.88 1.78 1.64 1.63 1.66 1.64 1.65 1.55 1.50 1.51 1.51 1.59 1.62
1.97 1.96 2.00 2.00 2.09 2.00 1.94 1.96 1.95 1.92 1.91 1.84 1.84 1.80 1.74 1.81 1.70 1.63 1.58 1.52 1.49 1.49
2.01 1.95 1.94 1.94 1.87 1.88 1.96 1.91 1.92 1.92 1.95 1.89 1.93 1.95 1.95 1.93 1.91 1.82 1.70 1.64 1.60 1.54
1.68 1.69 1.79 1.79 1.89 1.92 1.93 1.87 1.94 1.99 1.98 1.94 1.89 1.92 1.86 1.85 1.91 1.91 1.88 1.84 1.78 1.68
1.45 1.56 1.68 1.67 1.67 1.70 1.65 1.76 1.85 1.87 1.91 1.88 1.91 1.92 1.89 1.88 1.85 1.77 1.81 1.91 1.90 1.89
1.02 1.15 1.27 1.32 1.32 1.33 1.42 1.52 1.63 1.78 1.92 1.86 1.82 1.78 1.74 1.77 1.75 1.73 1.80 1.93 1.96 2.05

GFSNIL_prec_pwat_093.txt.gz
Precipitable_Water
1.51 1.56 1.81 1.73 1.87 1.81 1.81 1.70 1.68 1.72 1.66 1.57 1.62 1.49 1.39 1.40 1.42 1.46 1.43 1.41 1.48 1.44
1.46 1.52 1.69 1.78 1.82 1.85 1.85 1.81 1.81 1.79 1.80 1.82 1.63 1.53 1.58 1.43 1.32 1.39 1.40 1.34 1.37 1.41
1.39 1.49 1.62 1.74 1.77 1.79 1.88 2.02 1.87 1.88 1.93 1.78 1.64 1.64 1.56 1.51 1.53 1.41 1.38 1.40 1.36 1.35
1.32 1.41 1.61 1.56 1.67 1.76 1.79 1.79 1.71 1.93 1.97 1.78 1.59 1.55 1.63 1.62 1.59 1.50 1.49 1.52 1.38 1.31
1.24 1.45 1.55 1.52 1.46 1.54 1.62 1.71 1.70 1.85 2.01 1.92 1.69 1.63 1.64 1.57 1.63 1.58 1.46 1.55 1.55 1.42
1.33 1.35 1.42 1.48 1.51 1.48 1.52 1.61 1.68 1.78 1.74 1.77 1.69 1.67 1.70 1.71 1.75 1.70 1.60 1.58 1.50 1.46
1.51 1.56 1.55 1.60 1.65 1.62 1.60 1.54 1.57 1.60 1.59 1.65 1.67 1.57 1.62 1.67 1.78 1.79 1.71 1.74 1.63 1.52
1.78 1.79 1.75 1.71 1.75 1.76 1.79 1.76 1.69 1.66 1.63 1.66 1.65 1.58 1.57 1.62 1.61 1.70 1.68 1.66 1.71 1.73
1.86 1.88 1.83 1.84 1.84 1.87 1.86 1.91 1.88 1.78 1.75 1.71 1.65 1.67 1.65 1.64 1.56 1.58 1.57 1.51 1.59 1.68
1.90 1.88 1.87 1.92 1.91 1.91 1.87 1.93 1.94 1.96 1.95 1.90 1.92 1.84 1.75 1.71 1.67 1.62 1.54 1.50 1.52 1.55
1.92 1.91 1.88 1.89 1.92 1.96 1.92 1.88 1.96 1.93 1.95 1.97 2.00 1.98 1.94 1.87 1.82 1.80 1.79 1.79 1.70 1.60
1.72 1.75 1.79 1.80 1.80 1.85 1.86 1.88 1.86 1.87 1.91 1.91 1.98 2.02 2.04 1.99 1.90 1.86 1.85 1.95 1.95 1.83
1.34 1.39 1.45 1.59 1.66 1.71 1.69 1.71 1.76 1.80 1.96 1.96 1.95 1.98 1.97 1.94 1.82 1.69 1.68 1.83 1.91 1.98
1.19 1.23 1.28 1.33 1.39 1.51 1.55 1.64 1.75 1.73 1.72 1.79 1.79 1.81 1.76 1.63 1.55 1.51 1.48 1.53 1.63 1.75

GFSNIL_prec_pwat_096.txt.gz
Precipitable_Water
1.42 1.44 1.58 1.76 1.84 1.84 1.78 1.68 1.67 1.63 1.66 1.63 1.66 1.58 1.48 1.42 1.41 1.41 1.46 1.45 1.51 1.43
1.36 1.43 1.61 1.77 1.84 1.88 1.85 1.80 1.68 1.71 1.71 1.79 1.70 1.54 1.47 1.36 1.36 1.47 1.43 1.42 1.40 1.46
1.37 1.47 1.56 1.68 1.71 1.86 1.88 1.95 1.93 1.80 1.80 1.89 1.77 1.66 1.60 1.49 1.48 1.38 1.38 1.43 1.39 1.35
1.35 1.45 1.58 1.61 1.73 1.79 1.89 1.97 1.95 1.90 1.99 1.91 1.72 1.60 1.58 1.59 1.59 1.48 1.48 1.45 1.40 1.33
1.31 1.35 1.46 1.56 1.66 1.69 1.73 1.81 1.88 1.82 1.82 1.98 1.82 1.68 1.55 1.59 1.61 1.62 1.53 1.48 1.55 1.58
1.37 1.33 1.31 1.46 1.61 1.58 1.50 1.53 1.63 1.75 1.74 1.94 1.90 1.73 1.70 1.68 1.67 1.69 1.70 1.68 1.62 1.60
1.48 1.42 1.38 1.42 1.48 1.51 1.53 1.53 1.61 1.69 1.72 1.79 1.85 1.73 1.66 1.64 1.66 1.76 1.81 1.76 1.73 1.68
1.88 1.60 1.55 1.49 1.50 1.57 1.64 1.61 1.65 1.63 1.61 1.63 1.66 1.71 1.69 1.61 1.62 1.64 1.69 1.76 1.74 1.73
1.95 1.72 1.63 1.67 1.64 1.61 1.65 1.68 1.70 1.73 1.75 1.69 1.70 1.74 1.76 1.74 1.64 1.62 1.54 1.54 1.64 1.65
1.91 1.83 1.78 1.73 1.73 1.67 1.64 1.67 1.69 1.77 1.80 1.79 1.87 1.87 1.77 1.76 1.73 1.68 1.64 1.62 1.59 1.58
1.83 1.84 1.80 1.82 1.80 1.74 1.76 1.72 1.73 1.78 1.88 1.89 1.95 1.94 1.95 1.92 1.84 1.80 1.79 1.79 1.81 1.71
1.66 1.72 1.75 1.70 1.78 1.86 1.77 1.77 1.79 1.88 1.91 1.84 1.83 1.82 1.88 1.91 1.92 1.88 1.86 1.87 1.94 1.92
1.36 1.38 1.31 1.43 1.52 1.69 1.77 1.78 1.86 1.86 1.88 1.86 1.80 1.76 1.78 1.78 1.80 1.76 1.78 1.76 1.70 1.69
1.17 1.19 1.23 1.23 1.26 1.34 1.46 1.61 1.74 1.74 1.73 1.71 1.72 1.71 1.71 1.69 1.68 1.67 1.67 1.60 1.59 1.57

GFSNIL_prec_pwat_102.txt.gz
Precipitable_Water
1.64 1.67 1.65 1.75 1.93 1.88 1.87 1.74 1.78 1.78 1.77 1.76 1.72 1.67 1.62 1.53 1.50 1.50 1.38 1.41 1.48 1.44
1.58 1.64 1.69 1.79 1.94 2.03 2.00 1.99 1.83 1.77 1.73 1.76 1.68 1.67 1.58 1.42 1.44 1.46 1.43 1.43 1.40 1.40
1.55 1.56 1.58 1.76 1.85 1.97 2.06 2.05 1.85 1.80 1.78 1.83 1.94 1.82 1.69 1.54 1.44 1.43 1.41 1.41 1.43 1.34
1.55 1.59 1.62 1.67 1.81 1.89 2.00 2.02 1.90 1.99 1.79 1.80 1.91 1.92 1.75 1.66 1.63 1.53 1.49 1.45 1.39 1.38
1.64 1.62 1.57 1.59 1.73 1.89 1.88 2.02 1.98 2.09 2.02 1.95 1.98 2.07 1.85 1.62 1.62 1.59 1.60 1.59 1.57 1.51
1.67 1.69 1.56 1.56 1.57 1.78 1.83 1.89 1.99 1.97 1.91 1.90 1.94 2.01 1.96 1.84 1.72 1.68 1.70 1.71 1.73 1.64
1.73 1.77 1.77 1.64 1.58 1.56 1.70 1.76 1.78 1.75 1.75 1.70 1.77 1.86 2.07 1.97 1.86 1.81 1.78 1.83 1.85 1.86
2.06 1.97 1.97 1.78 1.64 1.55 1.54 1.60 1.75 1.66 1.65 1.67 1.68 1.74 1.88 1.94 1.89 1.78 1.71 1.74 1.80 1.89
2.06 2.04 2.08 2.04 1.79 1.57 1.54 1.65 1.71 1.70 1.67 1.66 1.74 1.66 1.65 1.66 1.70 1.80 1.79 1.71 1.74 1.77
1.97 1.98 2.01 2.03 2.05 1.79 1.66 1.73 1.71 1.73 1.73 1.58 1.58 1.62 1.70 1.69 1.72 1.75 1.71 1.74 1.77 1.76
1.89 1.91 2.00 2.00 1.96 1.97 1.85 1.76 1.78 1.73 1.65 1.53 1.52 1.63 1.71 1.78 1.86 1.84 1.86 1.86 1.83 1.77
1.78 1.89 1.99 1.96 1.89 1.92 1.92 1.82 1.77 1.68 1.61 1.59 1.59 1.67 1.70 1.77 1.79 1.78 1.78 1.79 1.87 1.79
1.66 1.69 1.74 1.83 1.83 1.86 1.87 1.83 1.80 1.66 1.62 1.66 1.63 1.66 1.74 1.71 1.70 1.69 1.70 1.72 1.73 1.61
1.52 1.54 1.62 1.65 1.73 1.65 1.57 1.58 1.57 1.47 1.47 1.61 1.65 1.69 1.70 1.64 1.64 1.67 1.61 1.60 1.59 1.58

GFSNIL_prec_pwat_105.txt.gz
Precipitable_Water
1.67 1.67 1.61 1.75 1.99 2.18 1.86 1.90 1.88 1.74 1.81 1.77 1.85 1.79 1.68 1.56 1.46 1.52 1.43 1.44 1.45 1.58
1.56 1.65 1.74 1.85 2.09 2.16 1.93 1.88 1.97 1.76 1.75 1.77 1.76 1.75 1.76 1.53 1.54 1.72 1.49 1.43 1.37 1.37
1.52 1.59 1.69 1.81 1.81 1.95 2.25 1.95 2.40 1.80 1.82 1.83 1.93 1.91 1.79 1.63 1.51 1.42 1.43 1.42 1.47 1.42
1.47 1.51 1.55 1.52 1.61 1.86 1.91 1.99 2.03 2.01 2.03 1.96 1.95 1.98 1.93 1.73 1.93 1.61 1.54 1.48 1.45 1.36
1.50 1.51 1.53 1.51 1.63 1.86 1.88 2.04 2.10 2.08 2.12 2.02 2.05 2.08 2.04 1.85 1.77 1.66 1.62 1.63 1.62 1.58
1.53 1.54 1.52 1.54 1.61 1.66 1.85 1.90 2.04 2.06 2.06 2.15 2.08 1.98 2.09 2.10 1.83 1.74 1.66 1.68 1.74 1.73
1.91 1.66 1.68 1.73 1.58 1.66 1.71 1.79 1.86 1.98 2.02 1.98 1.95 1.98 1.95 2.05 2.02 1.98 1.86 1.81 1.90 1.87
2.06 2.16 1.90 1.83 1.91 1.73 1.60 1.60 1.70 1.82 1.84 1.83 1.79 1.73 1.73 1.87 2.08 2.04 1.93 1.86 1.85 1.82
2.08 2.17 2.08 2.01 1.95 1.96 1.80 1.65 1.62 1.63 1.74 1.74 1.79 1.66 1.70 1.73 1.83 1.83 1.91 1.94 1.93 1.79
2.09 1.99 1.97 2.12 2.20 2.05 1.90 1.79 1.71 1.75 1.81 1.81 1.77 1.68 1.65 1.65 1.65 1.71 1.77 1.80 1.84 1.88
1.98 1.98 1.93 1.95 2.01 2.12 2.05 2.02 1.87 1.84 1.82 1.71 1.61 1.64 1.65 1.65 1.74 1.79 1.83 1.86 1.91 1.86
1.76 1.81 1.89 1.92 1.95 2.02 1.99 2.00 1.97 1.93 1.78 1.64 1.59 1.64 1.68 1.73 1.82 1.76 1.70 1.72 1.72 1.80
1.77 1.71 1.71 1.81 1.95 1.94 1.97 1.93 1.95 1.76 1.74 1.66 1.58 1.62 1.71 1.80 1.89 1.82 1.75 1.64 1.57 1.52
1.76 1.70 1.65 1.69 1.80 1.83 1.82 1.81 1.76 1.66 1.58 1.56 1.51 1.48 1.61 1.67 1.75 1.77 1.75 1.69 1.59 1.58

GFSNIL_prec_pwat_108.txt.gz
Precipitable_Water
1.88 1.77 1.76 1.89 1.81 1.95 1.83 1.91 1.98 1.79 1.76 1.72 1.87 1.68 1.65 1.51 1.47 1.50 1.37 1.34 1.46 1.37
1.60 1.65 1.66 1.76 1.84 1.83 2.11 2.13 2.14 1.81 1.75 1.77 1.75 1.71 1.71 1.50 1.60 1.55 1.85 1.34 1.29 1.27
1.39 1.50 1.65 1.71 1.81 1.88 2.00 2.25 2.28 1.89 1.71 1.69 1.89 1.78 1.65 1.60 1.60 1.39 1.32 1.38 1.47 1.46
1.36 1.41 1.41 1.54 1.64 1.66 1.88 2.05 1.87 1.94 1.94 1.89 1.86 2.01 1.85 1.76 1.86 1.84 1.43 1.41 1.51 1.48
1.40 1.38 1.42 1.37 1.52 1.53 1.76 1.90 2.04 2.09 1.99 1.97 1.90 1.93 1.96 1.90 1.85 1.79 1.54 1.54 1.51 1.49
1.51 1.54 1.38 1.51 1.44 1.53 1.67 1.79 1.80 1.99 2.03 2.07 2.12 2.12 1.96 1.97 1.97 1.91 1.79 1.62 1.63 1.72
1.99 1.81 1.55 1.57 1.63 1.61 1.62 1.62 1.74 1.93 2.02 2.06 2.06 2.10 2.06 1.90 1.93 1.93 1.96 1.86 1.70 1.73
2.08 2.10 1.97 1.86 1.72 1.67 1.75 1.75 1.60 1.70 1.83 1.96 1.96 1.80 1.77 1.76 1.74 1.93 2.00 1.95 2.03 1.95
2.01 2.02 2.04 2.12 2.21 1.94 1.88 1.86 1.73 1.58 1.59 1.76 1.80 1.75 1.79 1.79 1.69 1.88 1.95 1.73 1.91 2.15
2.00 2.02 2.04 2.06 2.14 2.11 1.95 2.02 1.95 1.90 1.82 1.64 1.65 1.66 1.70 1.75 1.70 1.63 1.66 1.74 1.77 1.87
1.97 1.93 2.00 2.02 1.99 2.05 2.07 2.08 2.12 2.04 1.84 1.71 1.65 1.67 1.69 1.72 1.75 1.71 1.74 1.81 1.90 1.78
1.83 1.84 1.92 1.96 1.96 1.96 1.96 1.99 2.00 1.97 1.86 1.79 1.73 1.74 1.75 1.76 1.86 1.76 1.69 1.73 1.70 1.66
1.82 1.69 1.67 1.75 1.84 1.95 1.95 1.99 2.03 1.94 1.82 1.78 1.69 1.66 1.67 1.71 1.77 1.75 1.70 1.66 1.63 1.57
1.88 1.68 1.75 1.73 1.69 1.74 1.85 1.85 1.84 1.82 1.81 1.70 1.59 1.58 1.66 1.65 1.67 1.71 1.70 1.73 1.67 1.66

GFSNIL_prec_pwat_111.txt.gz
Precipitable_Water
1.91 2.02 1.79 1.79 1.80 1.88 1.89 1.89 1.89 1.83 1.79 1.68 1.69 1.59 1.54 1.44 1.52 1.42 1.31 1.30 1.33 1.50
1.79 1.85 1.65 1.67 1.72 1.77 1.79 1.92 1.93 1.84 1.79 1.75 1.73 1.76 1.68 1.46 1.47 1.53 1.47 1.37 1.26 1.40
1.57 1.72 1.64 1.65 1.61 1.74 1.74 1.80 1.95 1.91 1.74 1.84 1.71 1.60 1.61 1.53 1.52 1.42 1.40 1.37 1.34 1.35
1.41 1.47 1.56 1.51 1.56 1.68 1.64 1.95 1.85 1.95 1.99 1.71 1.76 1.88 1.80 1.71 1.71 1.78 1.53 1.38 1.34 1.42
1.39 1.36 1.37 1.41 1.48 1.52 1.53 1.86 1.95 2.03 2.06 1.98 1.95 1.89 1.91 1.88 1.79 1.73 1.72 1.55 1.51 1.42
1.38 1.29 1.28 1.36 1.45 1.51 1.61 1.73 1.87 1.95 1.98 1.99 2.00 2.00 1.96 1.93 1.89 1.95 1.89 1.74 1.67 1.61
1.63 1.75 1.72 1.63 1.56 1.46 1.53 1.52 1.63 1.81 1.87 1.95 2.02 2.06 2.15 2.04 1.85 1.88 1.92 2.01 1.89 1.74
1.91 2.10 2.16 2.00 1.95 1.77 1.61 1.60 1.64 1.64 1.78 1.90 2.01 2.04 1.93 1.80 1.77 1.72 1.78 1.97 2.02 2.01
2.13 2.05 2.15 2.18 2.20 2.06 1.95 1.87 1.71 1.64 1.66 1.62 1.75 1.85 1.88 1.83 1.78 1.72 1.73 1.76 1.86 1.90
2.02 1.98 2.04 2.09 2.12 2.17 2.03 2.05 2.12 1.96 1.76 1.57 1.57 1.63 1.69 1.74 1.76 1.76 1.69 1.63 1.67 1.70
2.01 2.00 1.99 1.99 2.00 2.09 2.14 2.12 2.15 2.08 2.02 1.92 1.76 1.76 1.68 1.66 1.68 1.71 1.72 1.67 1.63 1.60
1.98 1.92 1.89 1.83 1.90 2.04 2.06 2.05 2.02 2.01 1.93 1.79 1.74 1.80 1.89 1.92 1.83 1.75 1.68 1.68 1.65 1.62
2.00 1.86 1.77 1.72 1.78 1.91 2.00 1.94 1.92 1.86 1.82 1.78 1.73 1.83 1.81 1.85 1.87 1.68 1.61 1.60 1.57 1.56
1.97 1.88 1.77 1.71 1.74 1.68 1.66 1.72 1.74 1.76 1.79 1.77 1.68 1.64 1.67 1.72 1.80 1.78 1.69 1.62 1.53 1.52

GFSNIL_prec_pwat_114.txt.gz
Precipitable_Water
1.86 1.84 1.84 1.86 1.82 1.78 1.93 1.80 1.76 1.75 1.70 1.72 1.54 1.52 1.48 1.36 1.47 1.42 1.46 1.39 1.51 1.49
1.84 1.88 1.87 1.72 1.72 1.80 1.91 1.88 1.94 1.89 1.74 1.70 1.66 1.65 1.62 1.48 1.43 1.51 1.47 1.41 1.33 1.41
1.53 1.67 1.73 1.60 1.60 1.63 1.80 1.87 1.95 1.95 1.79 1.74 1.70 1.67 1.67 1.61 1.53 1.43 1.41 1.55 1.51 1.34
1.36 1.47 1.54 1.49 1.45 1.52 1.72 1.80 1.81 2.00 1.79 1.73 1.71 1.80 1.76 1.66 1.61 1.61 1.56 1.39 1.24 1.27
1.25 1.33 1.28 1.33 1.30 1.41 1.42 1.60 1.86 1.91 1.97 1.91 1.88 1.89 1.91 1.83 1.83 1.71 1.68 1.61 1.52 1.43
1.24 1.25 1.23 1.25 1.24 1.26 1.35 1.43 1.68 1.85 1.93 1.92 1.99 2.01 1.97 1.95 1.95 1.83 1.91 1.91 1.70 1.63
1.48 1.38 1.30 1.29 1.38 1.37 1.34 1.30 1.46 1.72 1.82 2.00 2.01 2.02 2.10 2.12 2.03 1.96 1.98 2.04 1.96 1.89
1.86 1.68 1.64 1.81 1.99 2.00 1.87 1.53 1.50 1.53 1.66 1.91 1.88 1.96 2.01 2.03 1.99 1.83 1.86 1.91 2.05 2.03
2.08 2.03 1.94 2.08 2.16 2.14 2.17 2.06 1.83 1.71 1.62 1.56 1.68 1.86 2.02 2.01 1.89 1.86 1.73 1.70 1.79 1.86
2.08 2.08 2.06 2.12 2.14 2.09 2.11 2.27 2.10 1.99 1.89 1.79 1.62 1.58 1.67 1.73 1.79 1.79 1.82 1.74 1.72 1.68
2.05 2.05 2.06 2.08 2.02 2.07 2.12 2.16 2.16 2.10 1.99 1.92 1.95 1.78 1.68 1.68 1.67 1.69 1.73 1.73 1.66 1.55
1.93 1.98 2.01 1.99 1.97 1.97 1.97 2.05 2.13 2.08 2.04 1.98 1.92 1.90 1.91 1.91 1.89 1.84 1.77 1.67 1.62 1.57
2.09 2.08 2.04 2.01 1.87 1.82 1.91 1.98 2.06 2.04 1.96 1.90 1.87 1.88 1.90 1.97 1.91 1.83 1.73 1.65 1.63 1.60
2.09 2.05 2.03 1.93 1.85 1.76 1.68 1.69 1.67 1.67 1.68 1.68 1.72 1.78 1.84 1.95 1.81 1.72 1.59 1.56 1.57 1.55

GFSNIL_prec_pwat_117.txt.gz
Precipitable_Water
1.82 1.84 1.77 1.83 1.87 1.86 1.84 1.85 1.81 1.67 1.76 1.74 1.65 1.52 1.60 1.47 1.44 1.48 1.35 1.31 1.38 1.36
1.76 1.78 1.76 1.80 1.77 1.79 1.85 1.96 1.91 1.84 1.77 1.73 1.73 1.61 1.54 1.42 1.32 1.40 1.43 1.38 1.35 1.32
1.58 1.72 1.82 1.81 1.60 1.67 1.75 1.85 1.93 1.98 1.87 1.76 1.72 1.68 1.71 1.65 1.53 1.44 1.48 1.53 1.47 1.46
1.35 1.45 1.62 1.64 1.56 1.57 1.62 1.80 1.86 1.92 1.93 1.77 1.70 1.69 1.63 1.66 1.64 1.53 1.52 1.50 1.43 1.38
1.25 1.33 1.39 1.46 1.53 1.46 1.45 1.60 1.70 1.82 1.96 1.82 1.75 1.77 1.84 1.79 1.77 1.71 1.71 1.69 1.60 1.38
1.62 1.37 1.27 1.33 1.38 1.45 1.38 1.42 1.48 1.76 1.87 1.95 1.96 1.94 1.95 1.92 1.93 1.91 1.79 1.83 1.76 1.70
1.75 1.61 1.38 1.28 1.30 1.33 1.35 1.37 1.44 1.57 1.81 1.93 1.95 1.92 1.98 2.00 2.00 2.01 1.98 2.02 1.98 1.95
1.89 1.69 1.57 1.45 1.35 1.38 1.47 1.50 1.42 1.46 1.58 1.78 1.85 1.97 1.90 1.96 2.05 1.92 1.97 1.93 1.95 2.01
2.01 1.94 1.90 1.84 1.62 1.69 1.90 2.04 2.05 1.69 1.53 1.59 1.64 1.79 1.88 1.97 2.01 2.00 1.91 1.80 1.74 1.80
1.99 2.01 1.94 1.94 1.85 2.07 2.08 2.12 2.10 2.04 1.87 1.71 1.66 1.65 1.67 1.81 1.89 1.90 1.91 1.94 1.77 1.72
1.94 1.94 2.00 2.04 2.04 2.09 2.13 2.12 2.11 2.13 2.03 1.99 1.95 1.94 1.80 1.65 1.63 1.61 1.66 1.74 1.76 1.67
1.97 1.96 1.99 2.03 2.00 2.07 2.13 2.12 2.10 2.13 2.12 2.05 1.98 1.97 1.93 1.89 1.84 1.81 1.73 1.72 1.81 1.80
2.01 2.02 2.01 2.03 2.02 2.08 2.08 1.94 1.99 2.00 2.08 2.10 2.03 2.03 2.02 2.05 1.95 1.84 1.78 1.74 1.79 1.74
2.12 2.07 2.07 2.09 2.10 2.06 1.91 1.76 1.77 1.85 1.90 1.88 1.81 1.86 1.94 1.96 1.86 1.81 1.76 1.71 1.66 1.65

GFSNIL_prec_pwat_120.txt.gz
Precipitable_Water
1.81 1.81 1.80 1.80 1.86 1.83 1.85 1.84 1.83 1.68 1.58 1.62 1.60 1.60 1.55 1.46 1.44 1.41 1.43 1.36 1.33 1.31
1.74 1.86 1.85 1.87 1.91 1.87 1.91 1.93 1.93 1.87 1.71 1.70 1.70 1.63 1.51 1.48 1.42 1.39 1.37 1.37 1.34 1.31
1.65 1.78 1.81 1.86 1.80 1.75 1.77 1.83 1.91 1.90 1.93 1.80 1.77 1.73 1.65 1.59 1.54 1.41 1.37 1.42 1.41 1.43
1.50 1.60 1.71 1.78 1.82 1.73 1.65 1.70 1.79 1.91 1.98 2.00 1.79 1.79 1.68 1.67 1.70 1.61 1.52 1.54 1.38 1.37
1.35 1.42 1.44 1.48 1.60 1.67 1.56 1.56 1.62 1.81 1.89 1.88 1.94 1.75 1.64 1.64 1.66 1.62 1.60 1.67 1.69 1.55
1.27 1.21 1.22 1.30 1.44 1.53 1.55 1.42 1.44 1.51 1.66 1.82 1.97 1.85 1.89 1.90 1.93 1.81 1.81 1.81 1.79 1.77
1.69 1.70 1.62 1.47 1.33 1.43 1.45 1.43 1.32 1.36 1.51 1.72 1.84 1.98 2.01 1.97 1.92 1.93 1.95 1.95 1.93 1.97
1.81 1.85 1.85 1.76 1.56 1.44 1.38 1.39 1.38 1.37 1.42 1.57 1.78 1.94 1.91 1.88 1.94 1.90 1.89 1.95 2.01 2.00
2.01 1.98 1.90 1.83 1.65 1.57 1.52 1.45 1.49 1.64 1.58 1.46 1.45 1.63 1.83 1.94 1.94 1.91 1.91 1.90 1.95 1.88
2.13 2.05 2.08 2.02 1.93 1.87 1.82 1.76 1.82 1.92 2.08 2.01 1.83 1.62 1.76 1.86 1.92 1.85 1.92 1.93 1.92 1.86
2.15 2.15 2.20 2.11 2.01 2.03 2.00 1.88 1.98 2.04 2.15 2.15 1.98 1.89 1.79 1.66 1.70 1.80 1.88 1.87 1.80 1.72
2.12 2.20 2.12 2.10 2.02 2.05 2.06 2.00 2.08 2.21 2.15 2.15 2.12 2.07 1.94 1.95 1.81 1.74 1.73 1.75 1.69 1.69
2.09 2.09 2.06 2.03 2.09 2.08 2.04 2.06 2.06 2.05 2.03 2.05 2.11 2.16 2.00 2.09 1.92 1.84 1.74 1.75 1.83 1.81
2.02 2.07 2.05 2.08 2.10 2.11 2.04 2.04 1.95 1.82 1.98 2.04 2.08 2.09 2.03 2.07 1.98 1.88 1.88 1.83 1.75 1.72